GFSWCAN_250_rhum_000.txt.gz
RH
38 55 67 78 90 87 78 68 70 77 82 71 84 82 71 49 46 54 48 46 43 46 58 63 61 71 81 82 68 76 84 69 52 46 50 47 40 43 56 62 53 53 68 78 79 76 74 68 63 66 69 72 72 68
40 49 57 70 87 86 96 85 73 74 91 73 71 81 58 57 49 51 65 53 44 41 42 50 59 63 67 72 71 80 82 92 88 92 80 67 58 49 46 63 71 72 73 67 66 64 72 74 76 76 72 70 72 89
43 47 53 58 82 85 89 96 82 74 87 84 69 67 59 57 52 49 53 64 57 52 46 45 48 53 61 71 80 88 86 87 95 100 100 89 70 62 59 69 79 86 81 99 89 81 85 91 96 99 99 90 92 91
41 45 46 53 78 84 88 87 83 81 88 94 78 62 75 47 48 52 50 54 65 63 63 63 60 53 56 60 65 69 71 88 94 95 97 99 100 97 84 87 87 77 85 87 84 81 84 83 92 97 92 77 61 53
38 46 48 49 66 77 87 87 77 78 96 99 98 78 66 78 49 45 45 50 56 66 62 73 87 87 84 79 70 70 71 75 82 85 90 100 99 92 89 96 89 93 100 100 99 94 88 74 64 60 55 47 46 48
35 48 46 48 57 70 82 99 79 76 80 97 100 98 80 79 79 47 38 36 43 48 50 54 66 79 76 87 94 94 96 98 97 91 94 100 100 94 92 96 70 86 86 75 69 60 54 54 53 49 49 49 60 67
42 56 52 47 51 61 73 93 90 82 86 87 98 100 99 84 79 67 49 38 34 41 37 40 40 51 49 44 46 46 52 62 62 76 86 90 95 96 93 89 72 78 74 71 66 54 52 53 59 59 64 67 57 46
37 40 47 47 48 55 67 82 86 82 88 84 94 100 100 100 88 74 62 51 46 39 38 36 39 41 40 42 44 42 49 50 65 74 72 69 72 71 71 72 73 68 73 69 72 67 64 74 68 60 52 45 40 37
33 38 44 52 44 49 60 71 89 80 89 92 84 86 91 100 100 89 68 54 52 58 51 50 50 48 40 48 49 48 50 53 60 72 80 84 89 90 75 80 80 84 72 63 56 62 71 71 63 54 47 47 48 40
27 25 43 58 55 45 49 62 73 81 88 98 94 90 86 77 92 100 95 67 55 54 63 66 59 57 62 62 57 52 49 47 56 69 75 94 100 86 87 86 79 68 62 59 63 67 64 56 47 45 48 48 38 39
24 27 30 38 47 47 44 49 63 76 85 97 100 99 95 83 70 75 87 90 76 73 75 80 78 75 80 78 75 70 68 67 67 73 77 80 84 76 76 69 64 61 67 73 72 65 53 45 44 44 41 42 50 53
19 18 29 32 42 43 47 46 53 70 79 97 97 100 89 84 82 74 79 97 100 100 95 78 72 76 80 83 80 86 90 87 87 83 78 80 82 83 86 86 84 88 87 82 74 63 47 41 43 45 50 56 54 55
17 16 22 30 44 44 45 47 45 50 68 85 92 96 98 80 76 75 82 88 99 96 91 89 87 83 84 81 77 80 81 79 82 84 82 75 76 79 77 74 80 90 91 81 64 54 55 62 60 55 57 63 65 70
14 15 18 26 48 47 49 45 47 44 56 71 82 85 86 83 81 95 100 100 98 91 93 95 89 78 75 76 73 75 78 83 84 78 66 64 55 56 67 70 68 63 55 57 68 75 69 78 71 69 71 73 68 65
14 16 22 24 46 63 65 57 43 37 39 52 63 74 92 95 88 88 92 95 100 98 92 94 96 90 96 99 97 96 92 86 83 74 73 71 71 64 60 63 65 68 75 80 80 75 67 65 68 69 66 67 70 73
16 18 23 26 39 53 69 61 50 40 31 35 42 50 76 89 91 90 91 91 92 96 99 98 96 93 90 90 100 100 99 89 80 77 77 76 76 84 88 87 89 88 83 77 74 75 74 67 65 71 80 75 76 82
16 18 17 25 36 51 62 55 48 52 40 28 31 36 46 72 83 91 91 89 90 97 100 100 98 100 93 97 100 100 79 78 85 83 85 88 93 94 93 94 94 94 88 79 71 70 74 81 84 75 71 76 62 51
12 16 20 23 28 53 64 65 52 44 38 25 27 29 37 43 66 74 79 79 84 86 86 89 94 93 100 99 100 92 82 81 72 70 73 78 76 78 83 85 86 84 85 85 82 77 71 68 69 70 65 55 46 38
10 12 15 19 25 29 34 58 42 34 29 30 35 32 30 27 25 36 50 64 72 72 71 77 86 91 94 100 97 83 77 78 87 93 93 91 88 89 91 89 84 81 81 79 75 73 68 64 61 56 54 49 39 28
8 10 12 16 21 25 29 46 58 49 34 28 32 32 34 32 27 25 26 27 29 38 52 59 68 85 100 88 70 72 81 93 98 100 100 94 90 90 86 84 82 77 71 67 58 52 52 53 53 43 28 23 22 18
6 9 11 14 18 19 22 28 25 26 25 29 28 30 38 30 27 27 24 20 17 15 18 28 44 63 44 50 67 78 74 72 67 69 72 71 66 66 64 56 49 47 44 44 44 36 24 21 22 21 20 16 13 10
4 6 8 10 14 16 17 17 15 16 18 18 20 25 32 38 33 25 20 17 17 22 24 18 13 14 22 31 33 29 31 29 28 31 38 40 37 31 26 28 29 31 26 21 19 21 22 20 17 14 10 9 8 8
4 5 6 8 10 10 12 16 15 14 19 22 20 21 21 22 22 20 20 20 22 24 19 20 20 17 18 18 16 15 16 16 16 16 17 16 16 18 19 20 20 20 21 20 18 14 13 10 9 8 8 8 9 9
4 4 4 5 8 9 11 12 14 16 17 18 17 17 17 17 16 16 18 21 21 18 16 16 16 16 16 17 18 18 18 19 20 20 19 18 18 18 16 15 14 13 12 11 10 9 9 8 8 9 10 10 9 10
3 3 3 4 5 7 9 11 12 14 15 15 16 16 16 15 15 16 20 19 16 13 12 12 11 11 12 13 13 14 14 14 14 13 13 13 12 12 11 11 10 8 8 8 9 9 8 9 9 9 9 9 8 7
3 4 4 4 4 4 5 7 7 8 11 12 12 13 13 13 13 15 16 13 11 11 10 9 9 9 10 12 12 12 12 13 13 12 12 11 10 10 10 9 9 8 8 8 8 9 9 8 8 7 6 6 6 7
3 4 3 3 3 4 4 5 5 6 6 8 9 9 10 10 11 14 12 9 9 8 8 8 9 9 10 12 13 12 11 10 9 9 9 8 8 9 9 9 9 9 9 9 9 8 7 6 6 6 6 6 6 6
3 3 3 3 3 3 3 3 4 4 4 5 6 6 6 7 8 8 8 8 9 10 10 10 11 11 11 10 10 9 9 8 8 8 9 9 10 10 10 9 9 8 8 7 6 6 6 6 6 6 6 5 5 5
2 3 3 3 4 4 4 4 4 5 5 5 6 6 7 7 8 8 8 9 10 10 11 11 11 11 10 9 8 8 9 10 10 9 9 9 9 8 8 8 8 7 6 6 6 6 6 6 6 6 6 5 4 4
3 3 3 3 3 3 3 4 4 4 5 5 6 6 6 7 7 7 8 8 8 8 8 8 8 8 8 8 9 10 10 9 9 9 9 9 9 8 8 7 6 6 6 7 6 6 6 6 6 5 5 5 5 4
4 4 4 4 4 4 4 4 5 5 5 5 5 5 5 5 5 5 5 6 6 6 7 7 8 9 9 8 8 8 9 9 10 10 10 8 7 7 6 6 7 7 6 6 6 6 6 5 4 4 5 5 5 4
4 4 4 4 4 4 4 4 4 4 4 5 5 5 6 6 6 6 7 7 8 8 7 7 8 8 8 9 9 10 10 10 9 7 7 7 7 7 7 7 6 6 6 6 6 5 4 5 5 5 5 4 3 3
4 4 4 4 4 5 5 5 5 5 5 5 5 5 5 6 6 6 7 7 7 8 8 8 8 9 9 9 8 7 7 7 7 7 7 7 7 6 7 7 7 6 6 5 5 5 5 5 4 4 3 3 3 3

GFSWCAN_250_rhum_003.txt.gz
RH
21 32 56 67 45 57 54 79 63 49 65 85 99 100 94 92 64 61 57 54 52 66 63 61 59 74 85 92 90 67 98 100 100 100 62 51 65 93 100 100 100 100 100 100 100 100 99 100 100 100 100 100 100 97
19 25 50 61 52 60 55 69 75 56 56 77 88 100 95 95 86 62 55 56 56 56 62 61 64 72 60 68 90 96 86 74 78 72 79 50 41 41 61 75 77 94 92 82 86 97 100 97 93 97 93 84 73 64
18 20 43 57 57 65 55 59 82 78 62 60 77 98 100 84 86 74 56 56 49 49 51 51 60 59 61 63 63 71 75 87 69 72 74 70 57 52 54 57 56 69 89 100 100 100 79 75 86 76 66 67 70 88
21 21 46 50 60 68 61 56 69 92 86 67 67 90 100 96 75 74 67 58 55 48 48 47 50 49 53 60 62 61 61 64 63 69 83 93 95 98 90 95 67 62 58 62 71 84 88 89 85 92 98 96 88 82
23 23 42 52 55 69 68 58 64 78 94 92 74 80 100 100 83 66 70 70 61 55 50 49 46 45 48 50 52 60 61 69 69 70 76 95 99 100 100 91 100 84 92 98 90 73 72 77 81 88 85 78 79 83
24 28 34 55 52 58 71 60 58 74 91 91 93 80 91 100 94 80 65 64 72 64 58 64 58 52 53 53 55 58 64 66 61 63 74 81 70 72 79 80 62 68 82 98 98 86 86 92 96 96 97 94 81 76
20 28 38 59 68 55 62 67 55 69 89 89 96 88 76 98 100 88 90 62 54 59 63 63 69 82 78 70 63 58 57 61 66 70 74 76 72 76 88 85 84 100 100 100 100 100 98 91 78 65 63 69 68 56
22 34 37 50 70 66 64 64 58 59 82 95 92 93 73 77 96 98 90 78 65 52 45 54 75 69 75 75 78 77 74 67 71 82 80 81 85 91 95 86 84 99 100 97 90 84 75 65 62 62 59 48 50 54
30 37 42 40 53 65 63 59 62 64 72 91 92 90 89 73 80 92 88 78 70 67 53 52 54 56 53 64 70 61 59 62 75 80 75 68 82 87 83 83 83 82 78 71 63 59 62 64 53 48 53 56 60 66
31 36 42 55 54 51 58 62 52 56 63 75 83 98 97 91 74 81 92 81 73 85 76 67 60 52 48 54 52 55 54 55 59 62 60 70 74 63 69 84 95 98 88 73 76 78 75 77 69 61 62 68 70 68
25 34 50 50 58 59 58 56 53 55 57 64 77 89 100 87 75 73 73 77 79 84 92 94 82 71 56 52 51 52 50 46 45 46 44 53 64 57 49 57 62 62 64 72 82 80 77 74 77 82 82 76 68 60
28 30 47 50 53 64 67 62 64 56 55 64 72 80 93 91 77 68 70 77 82 88 100 100 86 69 70 70 66 63 59 57 59 64 66 66 65 63 64 66 68 72 75 81 82 80 78 77 73 67 63 60 59 59
23 27 38 50 55 53 48 52 57 57 61 57 66 68 76 82 83 79 74 77 93 98 93 78 77 76 74 76 79 71 62 62 68 70 74 75 76 80 84 85 88 94 93 88 86 88 82 76 73 69 63 56 53 52
19 24 33 40 44 59 64 64 51 50 52 57 52 53 61 66 80 96 90 86 91 90 88 76 69 72 75 81 79 74 72 68 64 66 69 72 78 80 79 83 83 81 78 75 68 66 65 64 58 53 50 56 58 60
18 23 28 33 44 63 71 73 65 57 57 56 50 42 50 61 76 99 99 97 92 90 88 83 72 76 76 71 81 84 80 71 69 71 78 85 82 80 83 81 71 68 70 69 63 60 61 60 58 59 61 62 64 65
16 25 30 30 39 46 65 67 56 66 65 53 49 47 50 59 64 74 98 100 99 96 84 80 78 77 72 65 70 70 62 57 60 62 60 53 58 63 58 50 51 51 50 55 62 63 60 57 58 58 58 62 70 76
12 16 23 30 35 50 56 61 78 76 56 38 47 51 56 61 55 61 71 82 100 99 98 90 86 83 90 97 88 84 76 76 78 77 78 83 80 78 76 74 70 71 73 70 64 63 64 63 64 70 79 83 83 81
11 14 17 23 33 32 34 47 71 81 53 42 47 62 67 64 60 57 52 53 69 90 100 99 97 99 97 96 99 91 82 76 73 75 79 84 85 82 82 80 78 75 74 77 82 80 79 80 82 82 84 78 64 53
9 12 16 21 24 27 29 36 43 39 35 45 51 57 58 62 70 62 51 50 55 62 70 88 99 100 100 98 94 91 87 86 91 95 93 89 83 86 96 97 92 89 86 82 80 83 85 81 75 67 57 49 32 22
7 10 12 16 21 26 24 21 21 25 34 42 52 65 68 72 67 66 63 50 44 48 50 55 67 94 100 100 93 86 95 100 99 95 92 95 100 100 97 92 87 82 76 68 63 60 61 59 50 37 28 18 15 15
5 8 12 14 17 21 22 21 19 19 20 30 47 60 81 85 67 61 62 59 47 47 58 64 62 63 56 58 72 82 89 94 100 100 99 94 89 85 80 73 72 72 56 32 19 21 21 18 16 16 17 17 14 12
4 5 8 11 13 15 15 20 21 18 17 20 32 38 48 65 68 67 68 62 56 72 85 88 71 50 44 45 46 46 48 52 57 55 55 54 48 38 28 25 23 20 17 17 16 15 15 16 15 14 13 12 11 10
3 4 5 7 9 10 13 17 17 16 15 17 21 23 29 36 40 48 49 55 85 97 80 51 34 41 46 48 50 50 48 39 31 26 24 25 26 25 22 21 20 18 17 16 14 14 14 13 12 13 12 11 10 9
3 3 4 4 6 8 10 12 15 15 13 16 18 20 21 22 22 21 21 31 37 40 40 44 50 56 57 54 45 38 33 34 34 31 28 25 21 22 23 22 21 20 17 13 12 13 13 13 12 10 10 9 9 9
3 3 3 3 4 4 6 7 10 13 14 15 16 16 17 19 20 18 21 20 20 22 23 24 22 21 22 22 23 23 24 24 23 20 20 20 19 20 19 17 15 14 14 13 13 12 12 10 10 9 9 9 10 9
4 4 3 3 3 4 4 5 6 8 8 9 9 10 12 13 15 20 22 20 18 18 18 18 17 16 17 18 20 20 21 20 20 20 18 17 16 15 14 14 12 12 13 13 12 10 10 9 9 9 10 9 8 8
4 4 4 3 3 3 3 4 4 5 5 6 6 7 8 9 11 13 14 13 13 13 13 13 14 15 14 15 15 16 16 16 15 14 14 14 13 12 11 12 13 13 13 12 11 10 10 10 9 8 8 8 6 6
3 3 4 4 4 4 4 4 3 3 4 5 6 6 6 8 10 10 11 12 11 12 12 12 12 12 12 13 13 13 13 13 13 12 12 12 12 13 14 14 14 13 12 11 10 10 9 9 8 7 6 6 5 5
4 4 3 3 3 3 4 4 4 4 5 5 6 6 7 7 8 8 9 9 9 9 10 10 10 10 10 10 10 10 10 10 10 10 11 12 13 13 12 12 11 11 10 9 9 8 7 6 6 6 6 6 5 5
3 3 3 4 4 3 3 3 3 4 4 4 4 5 6 6 6 6 6 6 6 7 7 7 7 7 7 6 6 7 7 8 9 10 11 11 11 11 10 10 9 9 8 8 6 6 6 6 6 6 6 6 5 4
3 3 3 3 3 3 3 3 4 4 3 3 3 3 3 4 4 4 5 4 5 5 5 5 5 6 6 6 6 7 8 8 9 9 9 9 9 9 8 8 8 7 6 6 6 7 7 6 6 6 5 4 4 4
3 3 4 4 4 4 4 4 3 4 4 4 4 4 4 4 4 4 4 4 5 5 6 6 6 6 6 7 7 8 8 8 8 8 8 8 8 8 7 7 6 7 7 7 7 7 6 6 5 4 4 4 4 4
4 4 4 4 4 4 4 4 4 5 5 5 5 5 5 5 5 5 6 6 6 6 6 6 6 6 7 7 7 7 7 7 7 7 7 7 7 7 7 7 7 7 7 7 6 6 5 4 4 4 4 4 4 3

GFSWCAN_250_rhum_006.txt.gz
RH
9 13 17 21 32 51 70 86 75 68 58 34 52 95 97 100 99 81 75 58 52 60 57 57 54 66 83 84 75 94 86 98 99 80 90 98 100 98 82 99 100 100 100 99 100 100 95 90 80 81 82 78 80 77
9 13 18 20 30 46 72 86 59 76 68 44 48 86 89 100 100 98 75 61 57 54 68 75 70 68 76 93 93 72 79 70 68 75 76 59 90 100 100 98 80 84 91 96 90 89 91 96 100 100 100 90 85 86
9 13 17 19 29 41 74 72 64 77 76 62 58 69 86 99 100 97 92 72 59 58 55 67 76 61 61 61 73 85 71 66 74 100 88 86 58 49 58 84 99 100 98 82 77 81 78 75 77 86 92 90 87 83
8 13 19 19 25 42 72 70 78 73 82 76 73 52 80 93 95 99 91 80 64 61 58 59 62 71 66 63 63 59 62 67 64 70 86 96 94 88 75 58 54 62 84 97 100 100 100 100 100 97 97 95 95 92
9 13 19 22 26 48 77 76 91 72 77 88 86 51 62 83 87 97 95 81 75 66 62 56 50 52 56 58 62 69 72 67 67 71 76 63 68 71 80 75 70 60 64 71 71 74 81 91 95 95 86 82 82 87
8 13 22 23 27 53 75 84 91 76 82 82 92 62 55 67 80 86 94 89 69 78 63 63 53 52 47 46 49 53 57 66 70 69 73 70 65 68 72 85 83 83 82 82 76 76 69 69 70 62 77 87 94 92
8 15 26 25 31 50 70 88 100 92 82 75 86 89 61 62 67 84 89 89 75 59 66 71 68 64 56 47 45 49 54 59 63 64 64 60 63 71 77 81 68 82 80 75 78 68 60 61 75 100 100 98 97 95
9 14 27 28 32 42 64 85 94 100 98 79 77 92 84 73 65 69 90 84 84 74 59 67 71 68 63 61 60 48 46 48 55 60 64 66 67 71 80 76 66 78 88 99 99 87 80 85 94 87 86 95 95 84
10 16 31 36 36 42 57 81 90 99 100 91 74 80 97 92 88 77 75 90 80 79 76 81 69 67 60 69 71 71 69 62 58 56 54 56 66 71 76 79 84 99 96 92 92 97 100 100 99 98 90 79 67 61
11 17 31 54 54 39 40 64 79 88 100 98 72 69 88 99 95 87 80 83 88 88 85 89 81 72 55 60 65 70 69 70 89 80 64 69 75 75 86 98 100 94 86 88 94 87 78 76 78 66 57 60 68 70
10 16 26 43 59 54 35 46 74 84 84 91 92 73 80 92 94 96 93 85 80 96 100 100 100 85 73 72 57 51 52 57 60 67 53 67 62 59 63 87 80 81 82 72 68 60 57 56 54 58 62 65 69 74
9 13 20 30 51 61 45 36 58 78 75 94 100 95 87 79 82 85 91 96 86 81 100 100 100 88 79 67 68 60 48 45 49 67 56 63 65 64 60 60 62 64 61 59 60 61 63 68 73 78 82 86 90 97
9 14 18 25 43 64 66 40 40 58 74 83 85 82 81 79 74 74 83 96 100 99 91 93 82 70 62 55 52 50 46 52 56 56 68 78 69 65 67 71 69 69 73 77 78 80 81 83 87 90 88 86 83 80
10 14 16 24 38 61 62 47 40 38 59 74 76 82 74 69 70 80 90 93 94 99 100 80 72 84 95 94 85 73 57 49 50 59 81 85 73 77 76 75 74 73 71 76 85 86 82 79 76 68 61 56 50 50
9 13 15 22 43 60 55 35 32 35 49 54 67 71 66 66 74 81 89 97 99 99 97 98 93 86 76 68 78 89 86 81 86 96 93 91 91 87 89 84 78 80 78 72 68 65 61 55 52 51 53 55 58 60
9 12 15 21 34 48 52 42 46 47 46 48 50 54 70 82 74 75 84 85 90 100 99 94 91 88 90 86 84 79 76 85 92 89 90 90 89 89 86 84 80 72 67 63 59 60 60 62 66 65 65 63 60 60
8 12 14 18 27 37 42 40 41 38 40 35 39 46 57 65 71 73 75 72 68 76 93 97 90 90 94 90 85 83 82 79 76 75 77 79 81 83 83 82 80 76 70 68 68 68 69 67 65 63 64 66 73 76
7 9 12 15 20 26 32 38 47 43 32 31 52 55 70 78 72 73 75 73 69 65 67 76 88 97 100 98 95 90 88 85 81 78 78 78 79 81 81 79 78 76 71 71 71 70 68 67 66 68 74 78 76 74
6 8 10 13 15 18 25 30 29 29 26 31 52 68 88 100 95 82 79 79 80 76 64 64 69 80 94 99 100 100 93 91 91 90 87 86 84 82 80 77 75 75 77 81 80 78 76 80 89 88 87 82 85 77
6 7 9 12 15 17 18 19 22 22 28 34 44 66 81 83 87 94 94 85 78 72 73 71 68 68 65 68 79 82 82 82 85 86 85 80 74 73 79 84 90 93 92 87 84 83 85 88 92 84 69 59 37 24
5 6 7 10 14 15 15 18 20 20 26 33 43 62 74 84 88 85 93 100 99 94 86 82 86 87 85 79 73 62 60 66 76 78 72 70 72 74 82 88 82 70 67 76 82 72 59 52 44 41 34 25 20 19
4 5 6 7 8 10 13 15 16 16 24 33 38 52 66 66 82 90 83 78 91 98 98 98 100 87 73 68 67 66 65 67 69 64 58 54 54 64 68 61 51 46 44 46 48 45 39 34 28 24 24 22 17 14
4 4 5 5 6 7 8 10 12 15 15 21 31 45 60 70 84 94 90 90 91 100 94 78 74 83 87 80 71 70 77 85 84 77 71 71 66 59 52 47 43 38 34 34 35 35 34 31 29 27 20 14 14 12
4 4 4 4 4 6 7 8 10 11 11 13 18 21 24 27 31 40 60 83 90 84 77 66 57 56 59 63 72 76 75 75 74 75 73 65 62 56 50 46 40 37 37 38 36 27 23 21 18 16 14 14 13 11
3 4 4 4 4 5 6 6 8 8 8 8 11 14 18 21 21 22 24 30 37 48 59 66 68 66 65 67 66 71 79 82 76 64 56 55 57 53 46 43 42 42 44 47 34 24 19 16 15 16 14 12 10 10
3 4 4 4 5 5 4 5 6 8 7 7 8 10 13 15 17 17 18 20 24 25 26 29 32 35 42 54 65 62 54 52 56 57 53 46 42 41 37 36 33 29 27 24 20 17 16 16 15 14 12 11 9 8
3 3 4 4 5 5 5 4 5 6 7 6 5 6 8 10 12 15 16 18 19 20 19 19 20 23 26 26 26 27 30 32 31 31 31 28 25 22 20 19 19 18 16 15 15 15 14 13 12 10 9 9 8 8
3 3 3 3 4 4 5 5 5 5 6 6 5 5 5 6 8 9 11 13 14 15 16 17 18 19 20 22 23 24 26 26 25 24 22 21 20 18 16 16 16 15 14 14 13 12 11 9 9 8 8 7 8 8
3 3 3 3 4 4 5 4 4 4 4 5 6 6 6 6 6 7 8 9 10 10 11 12 13 14 16 17 18 18 18 17 16 16 14 13 14 14 13 12 12 11 11 11 10 9 8 8 8 8 8 8 7 6
3 3 3 3 3 3 4 4 5 5 4 4 4 4 4 4 5 6 7 7 8 8 8 9 9 9 10 10 10 10 10 10 10 10 10 10 10 10 10 10 10 10 9 8 8 8 8 8 8 8 7 6 6 5
4 3 3 3 3 3 3 4 4 4 4 4 4 4 4 3 3 3 4 4 4 4 4 5 5 5 5 5 6 6 7 7 7 8 8 8 8 8 8 8 8 8 8 8 8 8 8 8 7 6 6 6 6 5
4 4 3 3 3 3 3 3 3 3 3 3 3 4 4 4 4 4 4 4 4 4 4 5 5 5 5 5 5 5 6 6 7 7 7 8 8 8 8 8 8 8 8 8 7 7 6 6 6 6 5 5 5 5
5 4 4 4 3 4 4 4 3 3 3 3 3 3 3 3 4 3 4 5 4 4 4 4 4 5 5 5 5 6 6 6 7 7 7 7 8 7 7 7 7 7 6 6 6 6 6 6 6 5 5 6 5 4

GFSWCAN_250_rhum_009.txt.gz
RH
3 5 6 9 14 16 26 50 74 91 90 100 65 53 77 92 95 100 90 67 75 43 51 56 89 99 84 82 82 86 97 100 100 96 90 100 97 100 84 67 63 62 58 58 54 53 54 45 41 43 46 44 46 42
3 5 6 8 16 20 26 48 74 90 91 100 69 44 54 89 97 100 97 70 79 53 47 56 64 82 89 85 84 87 92 79 97 100 98 98 100 94 98 84 100 100 99 93 84 84 87 83 70 64 66 68 77 86
4 6 6 8 15 19 26 46 70 93 100 100 71 43 36 74 97 100 100 84 81 68 51 52 56 69 70 62 66 74 84 81 82 82 87 86 88 88 95 83 83 84 89 100 100 100 100 100 100 100 88 100 91 93
4 6 6 8 14 21 26 46 64 88 100 100 76 58 32 50 92 100 99 83 82 80 65 58 55 59 64 61 67 85 82 68 69 80 70 63 68 69 72 82 97 93 78 86 100 100 99 92 96 96 97 93 76 74
4 6 7 10 15 20 24 41 60 82 100 98 90 68 31 37 78 99 100 93 76 79 84 61 63 61 66 73 76 89 92 91 96 88 87 83 74 78 72 61 60 62 65 73 81 75 79 72 75 78 78 80 82 83
4 7 8 10 15 22 24 40 56 93 100 99 99 84 41 44 60 92 100 100 86 75 67 78 70 60 64 70 75 67 61 62 69 88 97 94 92 76 87 96 86 84 76 70 60 62 56 60 78 79 77 83 87 84
5 7 8 11 14 24 26 36 54 86 100 100 100 92 58 54 54 68 100 97 93 77 61 72 83 83 64 57 57 56 56 60 59 59 61 67 69 63 79 99 80 68 69 66 62 60 59 54 49 47 48 48 46 47
5 7 9 11 18 25 28 40 56 79 100 100 100 92 88 82 64 52 80 95 90 88 83 71 93 73 81 66 57 52 48 49 52 58 60 62 65 66 70 70 60 50 60 71 68 70 70 68 69 68 64 56 52 61
5 8 10 14 19 29 31 38 59 81 100 100 100 92 92 96 92 58 59 79 93 86 87 87 76 52 47 66 71 64 58 55 54 56 57 56 63 68 72 61 53 60 67 68 72 80 84 90 85 85 77 71 70 70
6 9 11 15 21 34 39 38 58 80 98 99 100 100 96 99 100 86 64 63 71 93 100 100 87 72 62 54 65 70 66 71 72 69 66 62 61 55 61 69 75 73 76 77 76 78 80 84 85 75 73 72 72 72
6 10 12 16 22 39 53 47 51 70 94 94 100 100 100 100 100 89 88 72 66 71 97 100 100 87 75 73 69 64 65 64 74 78 80 99 98 72 90 89 76 70 67 62 59 62 62 62 61 60 61 62 60 63
6 10 13 16 23 40 54 42 39 48 82 99 100 100 100 97 99 86 88 91 84 82 80 100 100 100 83 77 74 79 71 64 64 67 64 92 90 80 87 99 96 82 72 70 67 64 59 56 61 68 71 73 76 77
6 9 13 16 24 33 38 44 44 35 63 94 97 92 100 90 68 79 95 95 98 100 100 85 78 73 66 64 64 53 46 54 72 88 100 99 77 72 69 70 68 64 64 61 60 60 62 63 64 66 68 69 68 68
7 8 12 16 22 25 39 41 36 29 45 82 92 91 89 72 58 73 100 100 100 100 94 78 79 82 84 92 86 85 71 68 81 100 100 99 80 75 77 73 63 58 58 62 67 67 67 69 73 76 77 76 76 79
6 8 12 15 18 23 33 29 24 26 37 63 77 85 81 78 89 95 100 100 100 100 100 93 78 73 77 77 79 81 84 87 100 100 97 94 96 94 90 87 89 90 88 84 76 74 73 72 74 80 82 78 72 66
5 8 11 16 17 20 24 28 30 32 26 33 49 62 81 84 86 98 100 100 100 100 98 95 92 85 83 78 86 88 94 96 99 91 86 90 89 89 93 94 95 92 91 90 90 87 84 83 84 79 72 70 76 86
4 7 10 16 17 18 23 32 38 32 28 26 27 37 59 84 94 99 94 96 100 94 94 91 90 92 96 94 98 100 100 94 92 96 100 98 97 99 99 97 94 93 92 91 90 89 85 83 85 89 90 89 84 83
4 6 10 14 17 18 20 30 26 21 12 15 26 34 42 46 71 99 100 100 100 99 100 98 93 96 100 100 100 100 99 96 94 97 100 100 99 99 100 100 99 97 97 98 99 99 96 90 90 89 84 80 81 86
4 5 8 12 16 19 22 22 18 14 13 16 16 26 46 53 54 60 84 98 100 100 99 100 100 99 92 91 95 95 92 92 92 90 89 89 90 92 92 92 89 87 88 94 98 96 90 87 89 87 82 74 68 62
4 5 6 10 14 17 20 20 17 15 14 17 16 19 37 50 61 73 79 84 92 97 99 96 94 97 97 90 90 91 90 89 86 88 91 95 96 97 93 91 92 95 97 96 92 90 86 80 75 72 67 59 53 48
4 5 6 8 11 14 14 17 16 15 16 18 18 21 30 49 63 74 89 95 91 88 90 90 90 92 90 92 91 86 82 77 76 77 77 78 76 72 76 82 84 82 76 73 73 68 66 65 60 58 58 54 49 51
4 5 5 6 8 10 11 13 13 14 16 20 24 23 32 44 65 72 78 84 85 84 88 97 99 100 92 86 86 85 85 83 77 75 74 74 76 74 72 76 78 78 75 73 70 64 53 47 50 56 52 48 46 45
4 5 6 5 5 7 8 10 10 10 14 18 24 29 34 34 46 77 76 75 86 89 84 90 96 95 93 89 88 85 83 83 83 80 79 81 81 79 79 78 76 72 66 59 49 43 47 52 52 48 45 40 29 20
4 5 6 6 6 6 7 8 9 10 11 15 20 24 32 38 36 48 66 78 81 85 82 81 91 99 100 100 100 100 99 96 95 95 94 89 83 74 69 66 64 59 51 50 53 52 47 45 41 35 23 17 17 18
4 4 5 6 6 6 6 6 7 8 10 10 14 20 24 28 28 29 34 50 63 74 76 79 88 93 98 100 98 97 94 94 95 90 77 71 70 64 60 56 55 53 50 46 44 42 37 28 21 19 19 18 16 14
3 4 4 5 6 6 6 6 6 6 7 8 10 12 16 19 21 21 24 26 33 50 63 72 82 90 97 99 100 100 96 91 85 78 73 74 78 83 73 60 54 47 40 38 32 27 24 21 19 18 17 15 14 12
3 4 4 4 4 5 5 5 6 6 6 7 8 9 12 15 16 16 18 20 22 23 26 31 37 42 46 50 61 71 78 78 79 77 68 59 53 50 46 38 34 32 29 26 23 22 19 17 16 15 13 11 9 8
3 3 4 4 4 4 4 4 5 6 7 6 6 7 7 9 12 14 15 15 14 15 18 20 24 29 33 36 37 39 41 41 38 36 32 32 33 32 30 27 25 23 20 17 15 14 13 13 12 10 8 8 7 7
3 3 4 4 4 3 4 4 4 6 7 6 5 4 5 5 6 8 10 12 12 12 12 12 14 16 18 18 20 21 22 23 24 24 23 22 20 18 16 16 16 15 14 12 11 10 10 9 8 7 7 7 7 7
3 3 3 4 4 4 3 3 4 4 5 6 6 6 5 4 4 4 5 6 7 9 10 12 12 12 13 13 14 15 15 15 16 16 15 13 11 11 11 11 10 10 9 8 8 8 7 7 7 6 7 7 7 6
4 4 3 3 4 4 4 4 4 4 4 5 5 5 4 4 4 4 4 4 4 4 4 5 5 6 7 7 7 7 7 8 8 8 8 8 8 8 8 8 7 7 7 7 7 7 7 7 7 7 6 6 6 6
5 4 4 4 3 3 3 3 4 4 4 4 4 4 4 4 4 4 4 4 5 5 5 5 6 6 6 6 7 7 7 8 8 7 7 7 7 7 6 6 6 6 6 6 6 7 7 7 6 6 6 6 6 6
6 5 4 4 4 4 3 3 3 3 3 4 4 4 4 4 4 4 4 4 4 4 4 4 4 5 5 5 5 5 5 6 6 6 6 6 6 6 6 6 6 6 7 7 7 7 6 6 6 6 6 5 5 5

GFSWCAN_250_rhum_012.txt.gz
RH
2 3 4 4 7 8 13 16 21 29 52 75 74 80 94 96 100 100 100 100 100 100 100 87 80 92 78 96 100 100 100 93 90 78 73 66 67 60 55 54 46 44 50 47 43 50 42 34 34 37 35 33 33 33
2 3 4 4 7 9 14 17 22 33 47 69 74 81 88 95 96 100 100 100 94 100 100 81 86 69 74 81 98 99 100 100 89 100 98 96 85 76 66 63 61 62 56 49 48 49 40 40 43 41 44 53 48 43
2 3 3 5 7 9 14 15 30 35 50 63 66 81 92 91 97 100 100 100 88 96 85 56 71 82 72 71 88 89 93 100 100 100 100 100 100 100 100 86 72 65 67 71 80 84 80 64 61 63 63 61 60 64
3 3 3 5 8 9 13 15 27 39 50 60 65 88 96 91 94 99 100 100 89 88 78 50 55 68 84 77 65 68 74 67 75 89 88 91 95 97 100 100 100 98 90 96 95 96 89 84 89 94 94 92 88 91
3 3 4 6 8 9 12 17 26 37 58 62 67 89 89 91 88 93 100 98 97 86 83 58 52 57 67 74 77 82 77 80 84 92 87 94 85 78 78 87 86 92 98 100 100 100 100 100 100 100 100 100 100 100
3 4 4 6 8 9 13 18 28 45 61 62 72 84 84 86 68 75 100 99 100 95 79 69 64 56 58 58 63 77 72 60 68 80 82 80 83 98 80 66 62 55 62 72 81 94 98 97 95 93 87 84 84 87
3 4 4 7 8 10 14 18 26 46 63 66 72 81 82 84 58 58 95 100 97 98 71 82 66 66 68 64 58 60 61 63 63 79 85 83 78 76 77 68 65 72 70 69 63 65 62 62 62 69 72 65 61 59
3 4 5 8 10 12 16 20 23 37 55 67 76 85 86 84 62 46 66 98 89 90 76 79 98 89 78 74 74 79 74 74 73 69 68 68 66 75 98 94 80 72 73 67 71 77 58 59 52 43 43 45 46 44
3 4 5 9 11 13 18 23 27 34 55 67 81 86 77 89 67 50 46 91 94 88 98 96 92 78 79 84 84 77 72 68 72 73 75 70 77 77 76 71 66 66 60 58 64 65 58 54 56 57 59 63 68 73
3 4 5 9 13 15 18 26 33 36 50 60 76 87 80 91 92 70 39 66 91 98 100 100 89 64 58 79 87 85 91 94 75 66 58 61 72 69 70 65 62 62 64 66 62 60 59 59 60 64 71 72 67 67
3 4 5 9 14 15 20 26 33 34 48 57 72 88 97 98 96 73 52 53 73 98 100 100 99 76 82 73 65 69 84 92 77 72 88 97 86 56 68 72 66 60 59 59 62 62 63 65 67 68 62 57 57 57
4 4 6 9 14 16 19 26 31 26 36 61 75 100 95 93 86 76 69 53 55 72 100 100 100 94 94 89 78 75 63 66 85 76 89 99 61 60 71 70 69 68 69 64 64 68 71 69 68 69 70 69 72 76
4 4 6 8 13 16 18 24 29 30 30 43 58 74 82 74 72 77 86 75 60 58 81 100 100 89 76 83 86 85 86 83 95 87 99 100 77 65 64 68 68 62 58 60 64 64 63 66 67 64 63 64 64 64
3 4 6 9 13 16 18 22 25 25 26 31 46 67 74 65 66 80 96 100 100 78 63 63 71 76 73 78 88 83 94 100 100 100 100 100 86 84 85 80 78 81 88 89 88 84 74 66 66 70 71 73 78 83
4 5 6 9 12 15 17 18 23 22 23 30 34 44 74 83 78 85 95 100 100 100 87 77 73 75 73 69 77 86 90 87 100 100 91 90 80 74 82 92 96 92 87 85 85 83 84 92 94 91 91 95 96 95
4 4 7 9 12 14 15 15 22 29 30 31 33 40 62 88 89 90 94 100 100 100 93 91 89 86 84 81 82 79 82 88 94 87 82 87 100 100 100 100 100 100 98 97 96 99 97 90 85 90 92 92 95 98
5 5 6 9 11 12 13 13 20 26 25 26 28 34 54 79 97 100 97 100 100 100 94 93 88 89 90 90 94 94 90 80 79 84 89 93 93 90 89 91 96 96 97 100 98 94 91 91 96 99 99 98 96 90
5 6 6 9 11 11 12 14 15 17 16 19 31 40 42 52 76 100 100 99 97 98 97 99 99 92 88 92 96 92 93 94 95 92 90 88 89 92 96 97 94 94 95 94 92 94 95 95 95 97 93 87 86 89
5 6 6 8 11 11 12 14 17 15 14 19 27 38 57 55 58 77 99 99 97 99 95 90 88 91 90 88 84 82 82 84 88 90 95 100 100 99 98 96 97 98 99 99 99 99 99 98 95 92 92 91 95 97
4 6 6 6 9 10 9 12 14 15 16 21 25 27 40 57 61 66 83 98 100 100 100 99 96 94 90 91 91 91 90 90 89 89 87 86 86 86 90 92 92 92 94 96 97 97 95 94 96 92 91 94 91 88
4 4 6 6 7 10 10 11 13 13 15 20 26 27 28 35 50 64 74 81 85 92 100 100 97 93 92 91 94 96 96 94 92 91 89 88 90 93 94 96 96 93 92 93 94 96 96 96 98 98 95 85 76 68
3 4 4 6 7 7 8 10 12 12 14 20 26 26 28 31 32 41 52 62 69 72 80 89 94 97 98 100 100 100 100 100 96 95 97 98 100 99 98 92 91 93 92 88 91 95 92 88 84 79 76 68 59 53
4 3 4 4 5 7 7 9 10 12 15 17 20 24 29 31 30 37 43 44 57 72 71 74 86 85 85 82 79 83 89 94 96 92 89 86 86 90 91 87 84 86 86 85 84 80 79 79 76 69 60 55 48 41
4 4 3 4 4 6 7 8 9 10 13 16 19 24 32 38 37 32 29 32 47 54 53 54 65 75 84 83 81 79 77 81 85 83 77 77 79 79 79 77 75 77 79 77 78 80 73 69 64 54 48 40 33 29
4 4 4 4 4 5 5 7 7 9 11 14 17 20 23 27 27 24 25 29 24 28 37 55 60 64 74 78 82 89 93 89 86 84 81 78 77 74 73 74 75 73 72 73 68 63 56 51 48 39 32 27 23 21
5 4 4 4 4 5 5 5 6 7 8 10 12 15 17 19 22 22 23 27 27 24 25 26 43 69 76 80 84 83 83 82 84 86 79 78 80 82 84 83 76 68 61 56 55 58 54 41 34 30 25 21 18 16
5 4 4 3 4 4 5 5 5 5 6 7 8 10 13 15 17 19 23 24 27 27 27 26 26 33 47 62 71 77 80 80 80 78 73 72 70 69 72 74 72 64 61 60 53 45 40 31 23 20 19 17 14 13
6 4 4 4 4 4 4 4 5 4 4 5 6 6 8 10 12 16 20 23 24 23 22 20 20 21 24 28 38 48 57 62 67 70 71 69 69 73 74 69 63 54 45 39 34 27 22 19 18 17 14 11 10 9
6 5 4 4 3 4 4 4 4 4 5 5 6 5 5 6 8 10 12 14 15 16 16 16 15 14 14 15 16 19 21 24 26 30 32 32 34 36 36 33 30 26 22 19 18 18 16 14 11 9 8 8 7 6
6 6 5 4 4 3 4 4 4 4 4 4 4 4 5 5 6 6 7 8 8 9 10 10 11 11 11 12 12 12 13 14 14 14 14 15 16 16 16 15 14 13 13 12 11 10 9 8 7 6 6 5 5 5
7 6 5 5 4 4 4 3 4 4 4 4 4 4 4 4 4 5 6 7 8 8 8 7 7 7 8 8 9 9 9 10 10 10 10 9 9 9 9 9 9 8 8 7 7 6 6 6 5 5 5 5 6 6
7 6 6 5 4 4 4 4 3 4 4 4 4 4 4 4 4 5 6 6 6 7 7 7 7 8 8 7 7 7 7 7 7 7 7 7 7 7 6 6 6 6 6 6 6 5 5 5 5 5 6 6 7 6
7 7 6 6 5 4 4 4 3 3 3 4 4 4 4 4 4 4 5 6 7 7 7 6 5 5 5 5 5 5 5 5 5 5 5 5 5 5 5 5 5 5 5 4 5 5 5 5 6 7 7 6 6 6

GFSWCAN_250_rhum_015.txt.gz
RH
2 2 2 2 3 4 4 7 9 15 16 34 43 65 84 87 93 100 100 100 100 96 98 100 87 77 100 98 96 85 86 75 65 62 52 48 50 46 38 36 32 26 22 22 22 22 21 21 22 22 22 22 22 22
2 2 3 2 3 4 5 7 10 16 19 40 48 67 88 86 91 98 100 100 100 100 100 100 94 83 84 100 100 100 93 92 90 85 81 67 48 47 42 48 51 52 40 31 29 27 23 24 27 27 28 30 31 30
2 2 2 2 3 4 6 7 10 16 24 46 54 65 84 88 85 98 100 100 100 100 100 100 100 83 82 85 100 98 100 100 96 94 86 76 71 70 76 66 56 48 46 47 47 38 34 33 34 37 38 39 38 36
2 3 2 3 4 4 6 8 10 15 34 47 56 74 88 87 82 96 100 100 100 100 100 100 100 97 90 86 86 100 96 91 99 98 100 100 96 91 90 87 80 72 68 68 73 70 60 56 51 45 45 47 50 51
3 3 3 3 4 5 7 8 11 15 36 50 62 70 80 87 84 91 100 100 100 100 100 100 100 100 85 85 93 78 100 100 95 100 100 100 100 100 100 100 100 97 94 93 86 91 88 79 81 81 83 82 81 85
3 3 3 3 4 5 7 8 12 17 44 54 62 67 75 83 79 84 99 100 100 100 100 100 100 93 90 71 68 88 91 100 100 100 90 89 94 92 98 100 99 100 99 98 92 84 85 92 93 96 100 100 100 100
3 3 3 3 4 5 8 8 12 21 54 58 66 70 66 79 79 84 100 100 100 100 98 96 86 49 56 69 67 64 76 81 84 84 89 94 96 97 92 93 100 91 81 81 81 82 77 77 90 93 97 96 93 91
3 3 3 4 4 6 8 9 13 20 50 59 70 75 61 78 76 85 97 93 98 100 88 87 92 60 51 58 62 65 64 60 74 79 76 80 79 90 96 85 83 86 89 78 68 62 58 56 61 69 78 73 66 67
4 3 3 4 4 6 9 11 14 20 50 60 66 75 61 73 81 89 90 83 94 100 100 100 95 80 65 61 58 59 62 62 61 66 74 77 77 81 99 72 64 58 61 59 59 55 57 58 58 54 53 51 50 47
4 3 4 4 5 7 10 12 16 22 48 68 62 58 61 71 79 84 89 84 95 100 100 100 86 88 74 67 65 66 66 66 65 64 66 69 81 79 71 59 53 52 56 56 60 64 66 68 68 59 56 55 52 50
4 3 4 5 5 8 10 13 18 29 52 67 64 61 70 71 74 77 79 76 89 100 100 100 98 81 82 85 89 85 90 94 99 96 74 97 100 62 58 66 59 53 52 54 61 69 76 76 75 71 68 68 68 71
4 4 4 5 6 8 11 15 19 21 36 57 75 77 72 64 63 66 63 67 79 100 100 100 100 87 85 85 90 97 96 94 96 95 97 100 71 72 82 76 63 60 62 67 73 74 78 80 79 77 76 74 72 67
5 4 4 5 6 8 12 15 16 20 32 41 59 70 63 57 57 50 67 63 74 99 100 100 100 88 88 90 78 74 70 87 100 88 100 96 59 61 72 74 67 62 61 61 62 63 64 64 65 62 59 59 59 56
5 5 4 5 6 8 12 15 14 17 20 20 39 55 54 55 61 64 78 89 82 90 100 100 100 93 76 84 86 82 90 100 100 100 100 92 68 59 60 61 61 60 58 58 63 68 70 66 60 63 72 78 82 91
5 6 5 6 7 9 12 14 12 13 13 17 31 46 58 69 72 83 80 82 76 74 76 72 91 98 82 76 90 96 100 100 100 100 100 80 68 68 68 66 68 74 81 83 81 79 80 85 94 96 94 97 100 100
5 6 5 5 7 9 10 12 13 14 14 18 26 43 70 68 72 80 84 88 92 84 62 54 60 82 94 87 99 96 98 100 100 100 94 93 98 98 100 100 100 95 90 86 81 82 90 99 100 100 100 100 100 99
5 7 7 5 7 9 11 10 14 17 15 13 25 41 52 58 74 89 92 94 87 91 80 59 52 60 64 71 92 99 100 93 90 98 100 100 100 100 98 96 100 100 100 100 100 100 100 100 100 100 99 100 97 94
5 7 7 6 6 8 10 11 13 14 12 11 17 36 42 43 56 80 93 98 92 88 87 80 74 65 61 62 63 64 70 75 82 88 91 90 91 94 97 99 98 97 99 99 97 98 100 100 100 99 98 100 99 94
5 6 7 7 6 7 8 10 10 10 12 15 15 27 52 50 47 72 91 95 97 92 88 84 82 82 82 88 90 79 70 68 72 76 79 81 82 84 84 84 86 92 96 98 100 100 100 99 97 99 94 86 88 88
4 6 7 7 7 6 7 8 8 9 11 15 16 20 36 56 59 67 85 99 97 92 92 89 88 87 87 90 89 89 88 88 89 93 95 96 96 96 96 96 98 98 98 98 98 95 95 98 95 90 89 88 86 84
4 6 7 6 6 7 6 6 7 8 12 16 18 18 28 40 55 74 79 81 81 93 93 90 93 91 82 83 85 86 86 90 94 94 94 96 96 95 94 95 96 97 96 94 93 95 93 90 87 83 80 80 77 75
4 6 7 7 5 6 7 7 7 8 14 18 20 23 28 48 58 70 86 86 82 72 70 80 89 91 90 89 88 86 88 91 92 94 97 98 99 99 100 99 99 100 100 97 92 87 82 80 80 81 80 76 74 66
4 6 7 8 6 5 6 7 7 8 11 16 18 21 25 31 53 70 61 71 86 89 81 72 64 69 85 92 91 91 92 94 95 93 94 96 98 100 100 100 98 94 92 90 87 84 84 80 75 71 72 68 63 61
4 5 7 8 6 4 4 5 6 8 9 13 18 20 25 30 34 45 60 75 81 77 70 69 70 70 74 82 85 85 84 88 95 98 97 97 99 99 100 100 100 100 100 97 92 88 83 78 73 66 63 60 55 50
3 5 7 7 7 5 4 4 5 6 8 11 13 16 22 28 28 30 40 56 65 67 68 73 75 73 73 80 85 84 82 82 85 88 85 88 88 87 87 82 86 90 86 84 82 78 71 64 59 52 50 49 46 44
4 4 6 7 7 5 4 4 4 5 6 8 10 11 15 17 20 23 34 37 40 48 48 47 58 62 66 72 77 80 82 85 85 82 79 76 71 66 66 70 71 71 70 64 59 61 58 53 52 51 47 42 39 35
4 4 6 7 7 6 4 4 4 5 6 7 8 9 11 13 14 20 27 32 35 33 34 35 39 43 48 51 56 61 62 62 63 65 65 64 63 62 58 54 56 59 61 61 57 53 53 52 46 39 34 28 22 18
4 5 6 6 7 6 4 4 4 4 5 7 8 8 8 8 11 15 19 23 32 37 33 31 30 27 28 28 27 26 28 35 42 47 51 48 48 52 55 58 59 55 52 50 46 40 36 32 28 22 17 15 15 14
4 5 6 6 7 6 5 4 3 4 4 6 7 8 9 9 10 11 13 16 20 22 22 24 24 24 24 26 26 25 22 19 19 21 22 24 27 30 33 36 39 38 34 29 24 22 20 18 16 14 13 12 11 10
4 6 6 6 7 6 5 4 3 3 3 4 4 6 7 9 9 10 10 11 13 14 16 16 16 16 17 18 17 17 18 19 20 20 18 17 16 17 17 18 18 18 18 17 16 15 14 12 11 9 8 8 7 6
5 6 7 7 7 6 5 5 4 3 3 3 4 4 4 5 7 8 9 9 9 9 9 10 11 12 12 13 14 14 14 15 15 15 14 13 12 13 13 12 12 12 11 11 10 9 8 8 7 7 6 5 5 5
5 6 7 7 8 7 6 5 5 4 4 4 4 4 4 4 4 4 6 7 7 7 7 7 7 8 8 9 9 9 9 9 9 9 9 10 10 10 9 9 8 8 7 7 6 6 6 6 5 5 5 5 5 5
5 7 7 7 8 7 6 6 5 4 4 4 4 4 4 4 4 4 4 4 4 4 5 6 6 6 6 6 6 6 6 6 6 6 5 5 5 4 4 5 5 5 5 5 5 5 4 4 4 4 4 5 5 6

GFSWCAN_250_rhum_018.txt.gz
RH
5 3 2 2 2 2 3 5 6 10 11 15 19 47 76 78 92 82 95 100 100 100 92 100 100 96 88 91 100 82 90 67 60 49 48 37 29 26 28 27 27 26 28 28 26 26 26 26 26 26 26 26 30 36
5 3 2 2 2 2 3 6 7 10 12 17 25 52 64 78 90 84 92 99 100 100 96 100 100 95 98 83 97 94 84 80 73 76 54 49 41 40 36 33 30 29 26 27 28 27 27 25 25 25 26 26 26 27
4 3 2 2 2 3 3 6 7 11 12 19 28 51 56 83 86 88 90 98 100 100 100 100 100 92 99 99 87 80 94 94 80 71 74 59 54 57 51 41 38 29 27 26 24 24 26 27 28 28 28 27 26 24
4 3 2 2 2 3 3 6 7 11 13 20 29 56 59 92 89 93 92 94 100 100 100 100 100 100 90 100 91 91 94 99 100 82 88 92 86 76 67 66 60 55 50 41 31 29 25 24 27 27 26 27 26 25
4 3 3 2 2 3 3 6 7 11 14 23 37 56 63 91 94 96 94 90 97 98 100 100 100 100 100 96 97 83 84 94 100 100 99 96 97 94 84 83 78 75 76 74 65 55 48 48 46 44 44 46 43 46
4 3 3 2 3 3 4 6 7 11 16 25 45 52 67 97 93 97 100 84 99 100 100 100 100 100 100 99 96 86 100 93 81 93 98 91 85 92 95 89 78 78 81 74 77 76 78 80 87 93 96 97 95 88
4 3 3 2 3 3 4 6 8 11 15 22 39 54 72 89 94 98 100 97 100 100 100 100 100 100 100 100 97 91 72 99 96 99 100 100 100 100 100 100 100 100 93 85 89 87 85 80 76 74 77 82 84 85
4 3 3 3 3 3 5 6 9 11 15 21 32 53 67 82 90 99 100 93 89 92 90 100 100 100 100 100 100 100 93 80 92 88 93 100 100 98 95 94 94 92 91 97 100 93 89 88 86 86 81 72 70 79
4 3 3 3 3 4 5 6 8 11 16 20 31 54 61 75 86 100 98 90 84 81 93 100 100 100 100 100 100 100 100 99 80 90 90 89 100 100 86 76 82 83 83 83 89 99 96 92 82 74 71 61 57 52
4 3 3 3 3 4 5 7 9 13 18 21 32 43 65 80 99 99 97 88 83 82 98 100 100 100 100 100 90 60 64 86 87 74 87 91 90 89 79 71 70 77 70 63 67 76 80 76 70 62 59 58 61 60
4 3 3 4 3 4 5 6 9 14 19 20 23 51 71 80 96 92 90 81 77 78 100 100 100 100 100 100 73 46 47 60 73 64 62 69 77 68 75 75 71 68 61 61 64 69 66 66 64 64 62 61 62 64
5 3 4 4 4 4 5 6 10 13 13 16 26 60 75 81 81 84 87 77 79 88 100 100 100 100 100 98 87 65 51 56 66 68 64 83 80 67 70 73 74 70 70 71 72 68 72 70 60 59 66 71 74 79
5 3 4 5 4 4 6 7 9 12 13 19 21 37 61 58 59 78 90 79 81 100 100 100 100 97 91 100 97 83 67 75 86 86 97 100 82 70 57 69 87 82 70 65 65 66 64 65 71 77 79 79 76 69
5 4 4 5 5 5 6 7 8 10 14 16 18 28 38 46 51 82 100 99 99 100 100 100 100 76 77 92 89 88 97 99 98 100 100 86 78 66 88 100 100 91 83 82 78 76 72 67 61 57 54 56 62 68
5 4 4 6 6 5 7 8 8 9 13 14 14 25 45 61 66 86 95 100 100 100 100 100 84 78 67 76 92 88 100 100 100 100 100 81 80 75 72 74 78 75 68 62 58 58 60 63 66 73 76 76 79 82
5 4 4 6 7 6 6 8 8 10 10 12 14 33 49 57 75 85 94 100 100 100 100 100 80 75 72 66 90 97 100 100 100 100 100 75 63 64 70 76 80 84 87 83 80 77 75 75 77 79 81 81 83 87
6 5 4 6 8 7 7 8 9 9 9 10 13 21 38 45 73 90 84 95 100 100 97 89 84 74 69 73 83 99 100 98 98 100 100 99 95 95 95 93 90 86 87 90 90 91 95 98 98 95 92 94 99 99
6 5 4 5 8 8 7 8 10 9 8 11 15 19 31 41 71 95 93 94 99 100 99 89 87 81 75 75 84 91 84 88 95 96 98 100 100 98 99 100 99 98 98 99 98 98 97 94 93 96 96 96 94 91
7 5 5 4 7 8 8 8 8 7 8 14 16 20 29 43 64 87 98 95 98 99 97 85 77 88 91 88 81 76 85 97 100 100 100 100 97 96 98 99 98 98 100 100 100 100 100 100 100 98 98 98 97 97
6 5 5 4 6 8 8 8 8 7 8 13 17 21 22 34 54 77 99 100 100 100 88 79 78 79 82 83 86 81 71 76 87 94 99 100 100 100 100 100 100 100 100 100 97 92 90 92 99 99 98 97 94 92
7 5 5 5 4 7 8 8 8 8 10 14 18 22 24 36 58 65 80 100 98 94 89 86 84 81 77 77 80 82 85 79 69 66 70 74 72 70 69 68 70 71 74 79 88 99 99 97 98 96 92 91 88 86
6 5 5 4 4 5 8 8 7 8 11 13 19 21 27 31 47 62 78 79 79 83 86 92 97 94 89 84 79 78 79 80 78 75 75 82 89 92 94 95 98 96 96 98 100 100 98 95 90 91 91 89 89 90
7 5 5 4 4 4 7 9 8 7 10 13 16 20 25 30 34 43 56 72 89 92 92 87 81 78 79 80 82 85 89 88 87 90 92 92 92 94 98 100 99 98 99 100 99 100 99 96 96 98 99 97 96 94
6 5 5 4 4 4 5 8 9 7 8 11 13 15 21 30 36 36 36 48 71 79 87 89 77 75 78 78 81 90 96 98 97 96 95 95 98 100 100 100 99 97 97 96 98 99 99 97 96 94 91 84 81 78
6 5 4 4 3 4 4 7 8 8 6 8 10 12 17 23 30 35 37 40 48 65 76 78 82 86 80 81 79 75 80 91 99 99 92 87 92 99 100 100 100 99 100 100 97 94 95 93 86 78 76 73 68 63
6 5 4 4 4 4 4 6 8 8 7 6 7 10 13 16 22 30 36 41 41 54 66 69 73 81 87 81 75 78 80 80 87 93 98 97 95 92 92 93 93 90 89 90 90 89 84 80 78 72 64 55 48 42
6 5 4 4 4 4 4 5 7 8 8 7 5 6 9 11 12 17 24 33 37 36 54 68 77 86 91 92 87 83 81 80 79 80 83 87 91 93 94 97 94 85 80 81 77 71 66 62 57 51 44 38 32 27
5 5 4 4 4 4 5 6 6 7 7 6 6 5 5 8 10 12 17 21 27 34 41 50 60 66 74 82 83 82 78 75 75 77 79 83 86 88 87 82 78 76 73 66 62 57 52 49 46 40 31 28 24 22
4 5 4 4 4 4 5 6 7 8 7 6 5 5 6 6 7 10 12 15 19 23 26 31 39 47 52 55 56 60 61 61 58 56 60 62 58 54 55 54 55 54 51 45 42 40 36 32 28 26 23 20 18 17
4 4 4 4 4 4 5 7 7 7 8 7 5 5 4 4 6 7 9 11 13 14 16 18 21 23 24 26 27 30 34 36 34 30 25 24 26 29 30 29 29 27 25 24 22 22 21 19 17 15 14 13 12 10
4 4 4 6 5 5 5 7 7 8 7 6 6 5 4 4 4 5 6 7 8 9 10 11 11 11 12 13 14 14 16 18 18 18 18 18 17 16 15 14 14 14 14 13 13 12 11 10 10 9 8 8 8 7
4 4 6 7 6 5 6 6 7 7 7 6 5 5 4 4 4 4 4 6 6 6 7 8 8 8 9 9 10 10 11 12 12 13 12 13 12 12 11 10 10 10 10 9 8 8 8 7 7 7 6 5 4 4
4 4 8 9 7 5 6 7 6 6 7 6 6 5 4 4 4 4 4 5 5 5 6 6 7 7 8 8 8 8 8 8 9 9 8 8 8 8 8 8 8 7 8 8 8 8 7 6 5 5 5 4 4 4

GFSWCAN_250_rhum_021.txt.gz
RH
18 6 5 4 3 3 3 3 4 5 6 9 13 19 22 22 44 68 96 100 100 100 100 95 100 100 92 98 94 97 86 76 65 56 46 46 57 60 58 54 56 55 50 44 43 40 35 30 31 26 31 37 46 51
16 6 5 4 3 3 3 3 4 5 6 10 14 19 18 28 50 76 99 100 100 100 97 98 100 100 94 95 94 100 79 89 65 66 57 41 36 39 42 47 49 52 46 44 36 34 32 32 27 26 28 34 41 46
14 6 5 4 3 3 3 3 4 6 7 10 18 22 22 50 68 82 98 100 94 96 100 100 100 100 99 83 98 97 99 95 81 57 65 52 50 42 39 37 36 36 41 37 35 36 36 33 31 29 28 29 30 32
12 6 5 3 3 3 3 3 4 6 7 11 17 19 30 59 72 86 99 96 91 93 99 100 100 93 100 88 93 100 100 88 93 89 78 76 86 78 53 38 31 36 33 30 29 30 30 31 31 31 30 29 29 29
10 6 5 3 3 3 3 3 4 6 7 11 14 19 44 67 75 82 100 98 95 95 94 100 99 98 100 99 87 93 99 99 91 97 94 76 76 87 95 84 75 66 55 46 38 34 31 30 28 29 29 29 29 30
10 6 4 3 3 3 3 3 4 6 8 11 14 20 55 62 64 77 100 100 98 100 99 100 100 100 100 100 87 74 82 100 100 100 100 98 81 89 84 88 78 84 82 66 66 58 58 55 62 60 56 57 64 58
10 6 5 4 3 4 3 3 4 6 8 11 16 23 52 66 73 87 100 100 98 97 92 99 100 100 100 99 97 79 80 80 97 100 100 100 100 100 100 100 100 95 94 90 74 71 75 78 78 73 72 70 70 73
8 5 5 3 3 4 3 4 4 6 8 13 18 23 57 78 75 94 97 100 100 97 88 99 98 100 98 90 100 95 88 92 68 85 94 96 98 100 100 95 93 92 95 96 93 85 77 78 84 86 81 76 74 75
8 5 5 3 3 4 4 4 5 6 8 14 19 25 55 68 70 96 99 100 100 100 94 100 92 94 100 95 84 95 97 99 100 90 77 99 98 96 86 79 91 96 91 93 95 96 98 98 95 92 88 86 82 80
9 6 5 4 3 4 4 4 5 7 9 14 20 23 36 68 85 93 90 100 100 100 100 96 100 100 98 100 90 88 95 99 100 100 100 100 100 100 96 81 86 88 85 84 76 74 73 78 83 81 76 71 66 63
9 6 5 4 3 5 4 4 5 7 8 12 13 18 33 80 79 81 84 90 91 100 100 100 100 100 100 100 100 100 97 100 100 100 100 100 100 93 92 93 88 80 87 88 79 72 70 68 62 59 54 51 52 53
9 7 6 4 3 5 5 4 6 7 8 11 12 22 41 62 65 70 84 83 96 100 100 100 100 100 100 100 100 100 100 100 100 100 100 100 99 98 82 81 79 81 78 81 88 82 81 75 70 72 76 70 63 60
9 8 7 5 4 5 6 5 6 8 8 10 12 17 25 42 52 66 84 87 99 100 100 100 100 100 97 84 87 99 100 100 100 86 98 94 66 76 80 86 84 78 71 73 82 83 76 90 91 78 67 63 62 64
10 9 8 6 4 6 6 5 7 8 7 8 10 11 16 35 60 74 90 92 100 100 100 100 100 94 85 70 85 98 100 100 100 88 86 67 52 63 65 65 65 69 73 76 78 85 91 100 96 96 95 93 90 85
11 9 9 6 5 6 7 6 7 7 7 7 9 10 19 35 57 72 89 90 99 100 100 100 92 88 84 68 89 98 100 100 100 100 86 64 54 57 63 62 62 69 90 100 100 100 100 100 99 88 80 77 76 80
14 9 10 9 6 5 7 7 7 8 8 7 8 12 28 44 54 76 84 95 99 100 100 100 89 96 96 75 83 89 100 100 100 100 94 72 69 70 75 89 86 95 100 100 99 99 90 85 84 88 90 86 85 83
14 10 10 11 7 6 7 8 7 7 8 7 10 15 32 55 59 82 80 92 98 100 100 97 88 81 84 77 86 91 100 100 100 100 100 94 88 92 93 99 99 96 90 87 86 84 82 85 87 84 84 87 85 81
18 10 8 11 9 7 6 8 8 7 7 9 12 19 43 48 55 70 90 95 94 100 100 92 88 83 73 76 91 95 90 100 100 100 100 100 97 93 98 95 88 80 74 70 69 73 79 84 86 90 89 89 90 89
21 14 8 11 10 8 6 6 8 7 7 9 12 19 30 44 51 62 77 93 91 90 95 91 85 89 88 79 78 87 98 100 100 100 100 100 100 99 94 97 100 99 99 97 96 93 91 92 92 93 94 94 92 91
20 13 8 10 10 7 6 5 6 7 8 8 11 17 23 31 49 69 76 88 88 89 86 89 95 98 88 81 81 82 87 96 100 99 100 100 100 100 100 99 98 100 100 100 100 100 100 100 100 100 97 96 97 96
23 13 8 9 10 7 6 5 4 6 8 8 10 15 19 27 36 51 67 75 85 92 95 99 100 99 91 92 88 91 89 87 94 95 94 94 96 99 100 100 100 100 100 100 100 100 100 99 97 96 94 89 77 70
25 15 11 10 11 8 6 5 4 5 8 8 10 12 17 23 33 38 47 57 70 85 99 100 100 100 100 100 100 97 96 92 90 87 89 91 91 87 87 92 93 95 95 94 96 98 98 96 93 88 84 82 86 90
21 15 13 10 11 7 6 5 4 4 7 8 9 11 13 18 24 33 35 40 54 61 81 96 100 100 100 99 98 98 99 97 93 88 84 81 86 92 96 98 98 99 98 98 97 96 97 96 91 88 90 92 93 91
20 14 13 11 10 7 6 5 4 4 5 8 8 9 11 14 20 24 27 37 45 64 74 82 96 100 100 100 100 100 100 100 99 98 96 92 88 87 86 86 89 93 96 99 100 100 99 99 100 99 95 91 93 93
18 14 13 11 8 6 5 5 4 4 4 7 9 8 9 11 13 18 23 33 35 54 79 89 91 82 84 93 100 100 100 100 100 100 100 98 97 95 96 98 98 98 98 98 99 99 100 97 93 92 93 88 81 79
15 13 13 11 7 6 5 4 4 4 4 5 9 9 8 8 11 14 19 23 30 39 55 84 96 96 98 100 100 99 97 95 97 99 99 97 99 100 100 98 93 91 89 91 91 88 83 81 82 83 85 85 83 78
14 13 12 10 7 5 4 4 4 4 4 4 6 9 9 7 6 10 14 17 23 31 42 56 71 92 94 85 88 91 88 83 82 82 82 79 72 71 72 74 81 86 82 78 79 87 91 87 79 78 77 70 61 51
14 13 11 9 6 4 4 4 4 4 4 5 6 8 9 8 7 8 11 14 17 25 31 40 52 68 66 70 66 64 64 68 77 78 74 68 63 60 61 66 65 62 62 65 69 70 70 69 68 64 59 54 46 40
14 12 9 7 5 4 4 4 4 4 4 5 6 7 8 9 9 8 8 11 13 16 21 28 37 39 42 51 60 59 51 47 46 49 53 56 61 65 70 78 80 77 71 64 59 58 56 53 51 48 43 40 33 28
13 9 7 6 4 4 4 4 4 4 5 5 6 7 8 9 9 9 8 8 9 12 14 17 21 24 28 33 39 43 43 39 36 37 41 42 45 48 54 60 60 58 57 57 55 52 46 40 34 30 28 25 21 20
10 7 6 5 4 4 4 4 6 5 5 5 6 7 8 9 9 9 8 7 7 7 9 11 13 13 15 18 21 24 25 25 26 28 29 28 27 31 34 36 36 36 34 33 32 28 24 22 21 20 18 16 14 13
7 6 4 4 5 4 4 5 7 7 5 6 7 7 7 8 8 8 7 7 6 5 6 6 7 8 10 11 12 12 14 14 14 16 17 18 18 18 19 18 19 19 18 17 16 16 14 14 14 14 12 10 9 7
5 4 4 5 6 5 4 7 8 7 6 6 7 7 7 8 7 6 6 6 6 5 5 5 5 6 6 8 9 9 9 10 10 11 11 11 12 12 12 12 12 12 11 11 11 10 9 8 8 7 7 7 6 6

GFSWCAN_250_rhum_024.txt.gz
RH
5 19 18 7 5 5 3 3 3 3 4 7 11 11 16 19 25 39 62 89 96 84 83 98 100 100 100 85 98 100 97 67 62 98 100 96 94 100 84 94 87 76 63 66 56 68 67 59 54 49 41 33 31 31
5 22 17 7 5 5 3 3 3 3 5 8 10 11 18 24 32 51 65 88 89 77 84 100 100 100 99 92 96 100 100 93 80 87 89 86 75 78 78 89 90 93 81 73 82 87 70 56 54 47 41 37 33 29
7 22 14 6 5 4 3 3 3 3 5 8 10 13 19 24 41 60 74 76 88 73 93 100 100 100 100 98 94 96 100 98 92 74 66 81 93 84 86 67 63 61 55 56 55 58 60 56 50 46 39 34 34 32
10 23 13 5 5 4 3 3 3 3 5 9 10 13 19 28 42 62 75 71 86 72 92 100 100 100 100 97 98 94 100 96 88 90 65 72 91 84 70 66 64 60 55 53 50 46 47 43 43 38 36 32 32 33
13 24 12 5 5 4 2 3 3 3 5 9 10 13 22 30 45 63 75 74 83 74 85 100 100 100 100 88 100 96 100 100 100 97 96 95 76 73 70 54 44 43 40 39 42 41 37 36 34 33 30 29 28 29
16 23 10 5 5 4 2 3 3 3 5 9 10 14 21 24 41 62 71 86 90 81 86 93 100 100 100 84 98 100 100 100 100 100 96 100 100 90 92 95 91 76 62 56 54 41 34 33 31 30 30 29 28 28
19 24 9 5 5 3 3 3 3 4 6 9 10 14 19 21 46 70 81 89 92 87 91 96 100 100 100 94 87 93 100 100 100 100 100 100 97 96 87 90 89 89 81 75 76 70 56 47 41 33 28 26 26 26
23 24 9 6 5 3 3 4 3 4 5 9 11 14 19 26 53 74 71 84 95 91 90 93 100 100 100 100 97 71 92 99 100 94 90 100 100 94 80 78 86 89 99 95 90 89 87 85 83 86 88 88 86 80
26 23 10 6 5 3 3 4 4 4 6 9 12 14 18 27 52 71 64 77 92 91 94 92 90 95 100 93 94 89 71 80 82 99 100 100 100 100 90 99 100 100 100 100 100 100 96 94 87 84 89 95 100 100
29 24 13 6 5 4 3 4 4 5 6 9 12 14 20 31 69 68 69 77 95 86 99 95 92 100 100 99 83 98 92 83 92 82 99 100 100 100 100 100 99 100 100 95 96 94 92 93 93 94 92 89 89 82
32 26 15 7 6 4 3 5 4 5 6 8 11 16 19 40 66 65 72 71 91 98 100 100 100 100 99 100 91 94 100 100 99 99 100 98 99 95 92 90 100 100 92 96 99 99 97 90 81 83 74 66 63 61
32 30 17 8 7 5 4 5 5 5 7 9 13 16 19 25 40 46 63 76 96 100 100 100 100 100 99 96 97 87 92 100 100 100 100 100 73 85 94 93 98 96 99 100 100 100 89 80 73 70 78 79 74 77
34 32 22 10 7 6 5 6 6 6 7 9 11 14 19 19 18 43 77 99 100 100 100 100 100 100 100 99 94 84 71 90 100 100 100 97 83 95 99 91 76 81 95 98 91 96 96 89 81 83 84 75 90 91
36 34 26 14 8 8 5 5 7 6 6 8 10 12 14 18 25 66 98 100 100 100 100 100 96 99 100 100 86 82 90 97 100 100 96 86 100 100 94 92 96 85 71 77 90 95 97 88 80 78 81 97 98 100
39 36 30 17 8 8 6 5 7 8 6 7 9 11 13 28 44 67 99 99 100 100 100 99 81 72 86 94 83 88 99 99 100 95 79 80 89 100 95 59 58 64 63 64 66 72 73 70 72 89 99 98 100 100
48 39 35 20 12 9 8 6 6 8 8 6 9 9 16 29 45 66 100 100 99 100 100 100 96 84 73 93 92 93 100 100 100 100 97 98 100 100 84 59 48 54 67 70 76 79 74 85 95 100 100 100 100 100
49 47 41 21 15 11 10 8 6 6 9 7 8 12 18 26 51 70 87 100 92 100 100 100 96 93 90 78 99 100 100 100 100 100 97 96 100 100 100 98 87 80 78 76 87 94 99 100 100 100 100 100 98 94
60 52 46 24 16 12 11 9 7 7 7 10 9 12 16 26 43 58 67 75 98 100 100 100 97 91 92 93 100 93 83 98 100 100 100 100 96 100 100 100 100 100 100 99 100 100 100 100 100 99 94 91 86 80
66 61 50 32 20 14 14 11 8 6 6 9 10 11 15 26 33 44 63 79 99 100 100 100 98 100 99 99 89 80 79 85 100 100 100 100 92 87 94 100 100 100 100 99 100 100 98 93 91 89 90 94 97 94
64 64 56 34 20 14 14 14 10 7 6 6 10 9 11 22 34 32 39 59 93 100 100 98 97 100 100 100 93 85 76 80 100 100 100 100 99 91 85 89 96 100 99 96 94 94 94 93 92 94 98 97 94 94
62 64 54 32 21 13 13 13 12 8 6 6 7 10 10 14 27 34 34 42 57 72 93 100 100 100 95 96 98 99 93 86 93 100 100 100 100 100 100 95 87 84 86 90 96 99 95 93 93 94 94 95 96 96
66 67 55 32 23 17 12 12 13 10 7 6 6 8 10 11 15 26 32 33 44 65 74 73 89 100 100 100 100 99 100 100 99 97 100 100 99 96 96 98 100 97 96 96 96 97 96 94 95 97 96 93 93 92
73 67 53 34 23 18 14 13 12 10 8 6 5 5 9 10 11 15 20 27 35 51 72 80 77 82 98 99 100 100 100 100 100 100 100 100 100 98 93 89 90 94 96 97 97 97 95 96 98 100 100 98 99 99
72 62 48 31 20 18 15 14 12 10 8 6 5 4 5 9 10 10 13 20 26 41 55 61 74 85 90 94 97 100 100 100 100 100 100 100 100 100 100 100 100 100 99 98 96 94 93 94 92 92 93 93 94 96
69 61 42 24 19 19 14 12 11 8 7 5 5 5 4 5 9 11 11 13 18 27 37 54 66 70 82 91 90 90 93 100 100 100 100 100 100 100 100 100 100 99 98 100 100 100 99 100 100 100 98 97 96 91
65 60 37 22 17 16 13 11 9 7 6 5 4 4 4 4 6 10 11 11 15 21 24 33 44 58 68 74 84 91 91 90 98 100 100 100 100 100 99 97 95 96 98 98 96 95 95 94 94 91 89 82 77 76
61 47 27 15 14 14 13 9 7 6 5 4 4 4 4 4 4 7 10 11 11 13 18 26 35 43 55 64 74 82 86 88 89 91 93 98 99 98 97 98 97 94 90 85 87 93 96 92 87 86 84 73 58 52
52 38 21 15 14 12 11 7 6 5 4 4 4 4 4 4 4 5 8 10 11 13 15 20 28 35 44 53 59 70 84 88 87 85 84 85 86 88 90 91 90 84 78 77 74 66 62 59 55 50 45 44 46 44
44 26 16 13 13 11 8 6 5 4 4 4 4 4 4 4 5 5 6 9 12 13 14 14 18 23 34 44 53 59 65 76 89 96 98 100 98 86 73 65 59 60 64 64 57 51 43 39 36 33 32 33 35 34
25 19 14 14 12 8 7 6 4 4 4 4 4 4 4 4 5 5 6 8 11 12 12 12 12 13 16 25 34 41 43 48 57 65 65 67 75 76 75 73 72 69 65 57 50 45 41 38 33 30 30 29 28 26
21 18 15 13 9 6 6 5 4 3 3 4 4 5 5 5 5 5 6 7 10 11 12 11 11 10 10 14 17 20 24 26 33 35 37 40 45 48 51 49 46 44 42 41 40 38 33 28 26 24 21 18 17 19
19 19 15 10 7 6 5 4 4 4 4 3 4 6 6 5 5 5 6 7 9 10 11 11 10 10 9 9 10 12 13 14 16 17 18 20 22 24 25 26 28 30 28 27 24 24 23 19 18 18 16 16 15 13
18 14 10 7 5 5 4 4 4 4 4 4 5 8 8 6 6 7 7 8 8 9 10 10 10 10 10 9 8 8 8 10 10 10 10 11 12 14 15 16 17 18 19 20 19 18 16 16 15 14 13 11 10 11

GFSWCAN_250_rhum_027.txt.gz
RH
8 8 10 6 8 11 6 5 4 3 4 3 6 10 12 17 20 24 30 44 67 85 90 94 100 93 94 92 92 75 92 75 64 85 100 100 98 99 94 91 71 77 82 88 89 76 78 79 78 75 65 80 86 85
8 8 10 6 8 11 5 5 4 3 4 4 6 10 12 16 24 25 26 39 53 84 95 94 89 83 85 100 96 89 96 68 59 58 74 89 99 96 100 100 99 96 82 88 80 87 88 88 91 96 90 83 78 69
8 8 10 6 9 10 5 5 3 3 4 4 6 9 14 17 29 36 37 49 57 67 96 80 78 83 100 100 98 97 98 93 64 63 81 94 99 91 93 100 100 100 100 100 100 100 100 100 100 96 82 75 69 68
8 9 10 8 11 9 5 4 3 4 4 4 6 10 16 20 38 46 58 52 58 66 91 79 76 85 99 100 100 100 89 87 92 84 81 85 96 99 98 93 95 96 100 100 99 96 83 71 62 63 60 55 55 58
8 9 9 10 14 8 5 4 3 4 4 4 6 10 16 24 41 49 62 59 67 63 89 84 81 96 98 99 98 100 100 100 100 95 85 88 80 78 77 60 78 76 78 80 52 53 49 45 45 46 45 41 39 38
9 10 8 15 14 8 5 4 3 4 4 4 5 10 19 28 38 52 57 65 78 68 88 80 84 87 97 98 100 100 100 100 100 100 97 93 86 88 89 86 74 58 65 63 63 52 46 41 37 39 41 44 42 38
10 11 9 20 14 8 5 4 3 4 4 4 5 11 20 36 47 74 59 69 86 85 86 77 84 75 78 91 99 100 100 100 100 100 100 100 100 100 91 85 75 91 93 84 84 74 68 52 40 35 33 33 34 33
11 11 10 26 15 7 5 4 3 4 4 4 6 12 19 37 45 70 54 68 83 94 84 80 78 81 84 87 89 100 100 100 100 99 100 100 100 98 100 92 92 91 97 100 90 80 81 87 88 87 77 72 60 52
12 11 12 31 20 8 5 4 4 4 4 4 6 12 22 30 45 72 59 65 72 93 94 85 77 79 87 96 80 90 100 100 99 87 92 95 92 87 89 94 94 97 96 84 87 91 98 95 99 100 100 100 100 99
13 11 14 35 26 10 6 5 4 4 4 5 6 11 18 27 42 69 73 66 74 91 98 85 89 82 81 92 94 92 91 99 100 100 100 100 95 92 91 90 91 100 97 96 100 99 99 100 100 98 93 92 96 92
14 12 16 39 30 14 6 6 4 5 5 6 7 11 18 25 27 44 61 72 71 88 100 97 98 91 82 82 89 99 100 99 98 98 100 100 95 100 100 100 100 100 100 100 100 100 95 94 100 100 100 94 87 86
15 13 18 42 35 18 7 7 5 6 6 7 9 10 18 24 26 26 62 76 83 96 96 99 100 100 94 87 80 87 99 100 100 95 88 90 100 100 100 100 100 100 100 100 100 100 100 100 98 94 97 97 90 83
16 14 19 40 42 23 11 8 6 6 7 8 8 9 12 19 22 20 65 99 100 100 97 100 100 99 96 96 91 79 88 100 100 100 99 73 83 97 100 98 93 93 96 98 98 100 100 100 100 100 100 98 92 81
17 15 22 38 47 29 15 10 8 6 8 8 9 10 10 14 21 31 64 98 100 98 96 84 98 100 100 99 95 89 82 89 100 96 88 87 92 97 93 85 80 84 81 81 76 72 74 94 100 99 95 86 82 89
18 15 23 41 49 36 20 13 11 8 6 9 8 10 11 16 24 36 61 100 100 100 100 92 72 95 100 90 85 85 90 96 98 82 91 88 83 86 87 89 96 100 100 100 100 100 100 91 76 74 75 74 83 92
20 17 18 41 55 46 28 16 13 11 7 7 9 10 14 23 23 46 72 93 99 100 100 96 89 86 92 87 76 71 82 100 87 73 80 86 87 84 84 91 100 100 100 100 96 78 84 91 71 58 65 69 84 89
22 20 17 42 58 55 40 21 12 13 9 7 9 9 17 22 23 34 56 89 98 100 100 100 92 74 73 77 92 98 100 94 89 79 85 84 80 88 94 100 100 100 98 100 83 57 52 51 58 74 82 93 100 100
22 22 20 46 60 58 50 31 17 12 13 8 7 9 11 16 21 25 41 52 71 98 100 100 100 92 84 87 96 87 70 80 92 94 94 87 86 92 97 100 99 100 100 100 99 92 84 80 84 98 100 100 97 92
23 22 20 48 60 62 62 48 29 16 12 12 8 8 11 11 15 21 30 47 51 70 99 100 100 100 100 97 83 76 81 85 96 100 100 94 81 84 93 100 100 97 100 100 100 100 100 100 98 97 98 100 100 100
23 23 26 53 63 68 65 57 36 21 14 13 11 8 9 11 11 15 24 39 61 70 83 98 100 100 100 99 90 83 80 82 86 100 100 100 100 98 95 93 91 93 94 92 95 100 100 100 100 100 100 100 100 100
22 19 25 57 62 64 64 58 40 25 17 14 12 11 8 9 12 11 15 26 36 54 81 86 99 100 100 100 97 87 88 93 96 100 100 100 100 100 99 96 95 90 89 92 94 93 91 89 91 93 94 95 95 95
20 18 27 53 61 65 60 55 40 29 20 15 13 12 10 8 8 12 11 13 17 27 50 71 82 100 100 100 100 97 92 93 97 100 100 100 100 100 100 97 95 90 86 89 94 94 99 100 100 100 100 100 100 100
21 16 30 58 59 62 61 59 40 26 20 15 13 12 11 9 7 7 10 10 11 15 27 43 62 78 94 99 100 97 100 100 100 100 100 100 100 100 100 100 98 96 95 97 99 100 100 100 100 100 100 100 98 99
20 17 40 60 59 61 61 54 39 25 18 16 13 12 10 9 8 6 6 9 11 12 17 23 31 48 69 94 99 94 97 100 100 100 100 100 100 100 100 100 100 100 99 97 99 100 100 100 100 100 100 99 100 99
18 27 51 62 62 61 55 47 31 21 17 14 12 11 9 8 7 6 6 6 9 13 14 18 23 27 35 50 62 78 89 96 100 100 100 100 100 100 100 100 100 100 100 100 100 99 98 98 97 96 92 93 93 92
17 38 54 63 60 56 50 37 23 16 15 13 11 9 8 6 5 5 5 6 6 10 14 14 17 22 27 31 39 43 54 74 88 98 99 100 100 100 100 100 100 100 100 100 100 100 100 100 95 93 92 93 94 92
24 45 57 62 56 51 40 28 18 15 14 12 9 7 6 5 5 4 5 5 6 7 11 14 16 18 21 25 29 35 41 51 67 84 90 93 96 98 100 100 100 98 98 99 100 100 98 96 97 99 98 93 84 78
39 51 58 58 50 42 34 21 16 14 11 9 7 6 5 5 4 4 4 5 5 6 7 11 13 14 16 20 27 34 38 45 55 66 75 78 83 88 91 91 95 97 96 92 86 82 84 86 85 80 74 70 68 63
43 55 60 55 49 41 24 16 15 13 8 6 5 5 4 4 4 4 4 4 4 5 6 7 10 12 15 16 20 28 36 45 56 66 75 83 88 84 78 81 80 75 71 63 63 65 70 69 66 64 60 54 52 52
57 65 61 52 43 28 19 16 14 9 6 5 5 4 4 3 4 4 4 4 4 5 5 5 6 10 13 15 18 21 28 35 44 52 63 70 79 78 75 69 63 57 52 52 55 59 57 54 52 50 53 50 46 42
64 59 52 48 35 23 17 15 10 6 5 4 4 4 4 3 3 4 4 4 4 5 5 5 5 6 12 14 15 16 19 24 32 39 41 44 47 54 61 63 64 66 68 69 67 65 64 63 62 58 50 40 33 29
64 55 52 40 25 18 15 10 7 6 4 4 4 4 4 4 4 4 4 5 5 5 5 5 6 6 9 12 12 13 14 16 19 22 25 28 30 30 31 34 38 42 44 44 46 45 42 39 38 33 26 23 23 24
62 56 41 25 20 16 11 8 6 5 4 4 3 4 4 4 4 4 5 6 6 6 5 5 6 6 8 11 12 12 12 12 13 14 15 16 18 20 22 23 25 25 30 32 31 26 26 26 24 21 20 19 19 18

GFSWCAN_250_rhum_030.txt.gz
RH
8 9 8 8 11 10 9 8 13 6 4 3 5 5 8 11 13 16 18 32 54 48 62 77 81 74 77 76 98 88 70 73 67 77 95 98 95 83 77 64 70 97 98 100 100 100 100 100 100 100 83 85 93 100
9 9 7 8 11 10 10 8 12 6 4 4 5 5 8 13 13 20 27 46 56 63 62 78 72 72 74 82 99 75 63 74 58 71 86 91 100 90 97 83 73 79 75 84 82 91 96 96 82 89 95 96 100 100
10 9 7 9 11 11 9 9 11 6 4 4 5 5 9 13 16 26 34 46 60 59 71 72 70 74 86 90 84 70 56 68 61 53 72 86 100 100 100 100 100 100 90 92 82 90 100 100 100 98 96 100 100 100
10 8 8 10 11 10 8 12 10 5 4 4 5 5 9 14 18 32 45 66 69 66 62 64 64 83 90 90 77 73 66 70 72 68 69 78 92 100 100 100 99 99 100 100 100 100 100 100 100 99 90 72 74 72
11 8 8 10 12 10 7 13 8 5 4 4 5 5 9 14 22 44 58 82 81 79 63 56 74 87 95 91 80 72 70 86 87 78 90 94 97 96 98 100 97 100 100 100 99 100 100 96 87 85 76 66 57 52
11 8 9 11 12 10 7 13 8 5 3 4 5 6 9 15 27 55 89 87 81 80 62 58 87 91 95 94 94 86 94 98 92 85 67 77 82 88 91 88 100 98 100 94 96 91 79 64 60 62 66 68 66 61
11 9 10 12 13 10 8 14 7 5 4 4 4 5 9 18 34 74 93 81 81 75 69 65 76 73 86 99 100 100 92 86 88 93 90 71 72 82 86 99 79 74 72 74 79 81 82 70 64 66 59 57 59 63
12 10 11 13 13 10 10 16 7 5 4 4 4 6 10 18 32 63 71 74 78 72 76 79 73 63 75 97 100 100 100 99 80 78 96 96 88 88 92 94 98 98 87 89 90 90 94 93 87 95 97 100 98 93
14 12 11 14 14 11 12 17 7 5 4 4 4 6 10 15 22 58 64 66 81 74 85 92 84 60 66 79 94 97 99 97 99 93 89 91 100 100 100 100 100 100 100 99 99 100 100 100 100 100 100 100 100 100
14 13 12 15 15 13 15 18 8 6 5 5 5 6 10 13 22 47 60 70 78 75 90 99 100 77 65 76 82 99 98 95 94 100 100 100 100 100 100 100 100 100 100 100 100 100 100 100 100 100 100 100 100 90
15 14 14 16 15 16 22 20 11 8 5 5 5 8 12 14 18 23 50 76 86 79 80 93 100 99 79 72 74 82 99 96 89 85 97 100 100 100 100 100 100 100 100 100 99 100 100 100 100 100 100 100 100 100
17 15 15 17 16 20 34 28 15 10 7 6 6 8 12 14 17 18 36 84 98 90 89 85 100 100 100 86 82 78 76 92 100 94 81 80 100 99 92 96 100 100 100 100 100 100 100 100 100 98 91 97 97 99
19 17 16 17 17 20 45 44 23 11 10 8 8 9 11 14 17 19 62 100 100 100 98 92 88 87 93 95 80 75 82 88 95 95 88 80 100 100 97 100 99 95 96 86 84 90 96 97 97 98 100 100 100 99
19 18 18 18 18 18 48 60 36 16 12 10 10 10 10 14 21 35 68 98 100 100 90 88 90 93 88 93 97 84 76 87 100 86 84 80 88 97 100 85 77 84 90 95 97 97 95 90 89 89 90 93 92 96
19 18 19 19 19 19 47 70 51 28 14 13 10 10 10 16 28 42 58 98 100 95 79 81 88 95 83 77 90 95 92 95 97 89 92 82 78 78 84 90 94 92 87 84 85 88 94 94 98 100 99 96 86 77
20 19 21 20 20 19 45 71 65 46 29 15 13 11 10 12 20 39 65 78 89 100 85 73 76 90 94 88 98 100 100 100 91 82 97 93 93 98 100 100 98 99 100 99 97 98 100 100 100 100 99 96 91 84
22 20 23 21 20 20 40 63 73 64 41 26 16 14 13 11 10 21 49 60 67 82 98 87 78 74 88 97 100 90 100 77 66 69 90 99 100 100 100 100 100 100 100 100 100 100 99 91 98 100 88 64 55 53
22 22 26 24 21 22 24 62 74 73 56 35 24 18 14 13 13 10 22 43 57 72 78 98 98 78 77 91 100 94 74 66 65 80 85 82 88 98 100 100 100 100 100 100 97 93 85 89 89 100 100 96 89 86
21 22 24 26 23 23 22 48 65 74 70 55 34 23 19 15 14 14 11 19 32 38 50 68 87 98 95 91 94 95 88 75 70 79 84 82 80 80 81 83 88 90 96 100 98 99 99 100 99 97 96 97 99 100
21 23 28 25 22 23 20 38 61 74 80 74 53 30 21 19 18 14 14 13 15 17 24 36 71 98 100 100 97 91 92 93 94 94 89 89 96 94 89 85 85 93 97 98 94 96 100 100 100 100 100 100 100 100
21 23 28 28 25 22 20 35 60 72 84 88 76 47 28 21 19 19 13 13 13 12 13 19 43 72 98 100 100 100 97 89 99 100 100 100 98 99 100 100 96 90 89 96 100 100 100 100 100 100 100 100 100 100
21 23 27 27 25 22 18 26 55 66 74 82 82 65 40 23 19 19 18 15 11 13 14 14 19 36 61 85 92 98 99 96 93 100 100 100 100 99 100 100 100 100 100 100 100 100 100 99 100 100 100 100 100 100
20 22 27 29 24 23 21 26 46 55 65 75 77 64 45 27 17 16 17 16 14 11 11 16 16 15 27 40 55 78 91 95 95 96 100 100 100 100 100 100 100 100 100 100 100 100 100 100 100 100 100 100 99 97
20 22 28 27 23 22 22 26 44 55 62 67 71 60 43 26 17 14 15 14 13 12 10 9 14 16 14 18 31 43 64 81 96 99 98 100 100 100 100 100 100 100 100 100 100 100 100 100 100 100 100 96 96 97
20 25 27 25 21 22 21 22 39 53 65 68 66 50 35 20 15 12 12 12 11 11 10 9 9 14 16 16 17 26 45 65 90 99 99 100 100 100 100 100 100 100 100 100 99 99 98 96 92 86 85 88 90 90
22 27 26 22 21 21 19 23 43 54 62 64 57 38 21 16 13 12 10 10 10 9 9 8 8 9 12 15 18 17 20 38 56 75 90 95 99 100 100 100 100 100 100 100 100 100 100 99 99 100 97 90 90 93
23 24 22 23 22 20 19 29 45 58 65 63 44 22 15 14 11 10 9 7 6 6 6 7 7 7 8 12 16 19 21 22 26 44 57 69 84 93 99 100 100 100 100 96 98 100 100 100 100 98 95 94 93 94
25 23 22 21 21 19 20 34 52 60 60 50 28 14 13 12 10 8 6 5 5 5 5 5 6 7 8 10 13 18 19 18 22 28 35 48 58 66 78 85 92 98 100 100 100 99 99 98 94 94 94 95 98 97
22 22 22 21 18 17 30 50 58 58 54 38 16 12 12 10 7 6 5 4 4 4 4 4 5 6 7 8 10 13 16 16 19 25 32 39 47 56 60 65 69 75 83 94 95 92 87 85 90 91 90 89 85 76
21 21 21 19 18 28 50 61 62 59 45 21 14 13 11 8 5 4 4 4 4 4 4 4 4 5 6 7 8 9 12 14 18 23 28 34 40 48 50 52 56 62 60 60 67 67 65 73 78 79 77 73 65 55
20 21 20 19 26 50 65 68 67 54 30 17 15 12 8 5 4 4 4 4 4 4 4 4 4 5 5 6 7 7 8 10 13 18 25 31 36 43 50 50 47 46 48 46 47 52 57 59 62 62 59 56 50 44
22 21 20 27 50 66 71 70 59 33 20 16 14 9 5 4 4 3 4 4 4 4 4 4 4 5 5 6 6 7 7 8 10 13 17 20 27 32 33 35 38 42 43 45 47 47 48 50 50 50 49 47 42 38
22 23 37 59 66 69 71 59 36 23 19 15 10 6 4 4 4 4 4 4 4 4 4 4 5 5 5 6 6 6 6 8 9 11 14 18 22 24 28 30 30 30 29 29 34 41 45 47 47 47 43 37 32 32

GFSWCAN_250_rhum_033.txt.gz
RH
12 11 9 7 6 10 12 11 11 10 12 10 6 5 6 7 11 12 14 15 17 20 28 32 36 42 46 58 66 71 76 76 79 74 70 63 80 100 99 89 68 64 94 100 100 100 96 100 100 100 88 100 100 100
12 10 8 7 7 10 12 11 10 10 14 8 5 5 6 7 12 14 17 18 20 26 32 39 48 56 81 82 79 77 70 86 66 64 62 74 94 100 97 94 68 65 64 73 78 81 90 100 100 97 95 93 100 100
13 9 8 7 7 10 13 10 10 10 15 7 5 5 6 7 12 16 21 21 26 36 44 54 62 82 80 70 71 76 75 73 62 51 65 77 81 99 98 85 68 75 85 79 84 85 86 92 92 91 92 95 100 100
11 9 8 7 8 11 14 11 10 10 15 6 4 5 6 7 13 19 23 24 36 50 65 59 72 74 68 68 68 78 79 54 51 60 71 72 97 99 100 99 98 98 98 100 100 99 100 100 100 97 100 100 97 100
10 9 8 9 10 11 14 11 10 10 15 5 4 5 6 7 14 19 24 35 52 62 61 64 70 70 78 77 79 72 69 55 52 62 74 74 86 95 100 100 100 100 100 100 93 83 84 79 96 100 92 81 98 100
12 11 8 10 11 12 14 11 10 9 14 5 4 5 5 7 14 24 28 48 60 64 60 74 69 70 78 93 85 65 75 72 60 65 73 74 80 93 96 86 100 100 100 96 89 94 99 99 100 96 76 69 70 67
19 14 10 13 11 12 13 12 11 9 13 5 4 4 5 9 16 26 38 47 59 60 64 70 72 74 91 98 99 83 71 79 81 82 85 84 86 90 88 93 98 95 99 99 100 100 100 99 100 100 81 68 66 66
22 16 14 17 13 12 13 12 12 9 13 5 4 4 5 9 15 18 36 48 60 56 66 74 78 80 92 98 100 85 80 78 86 73 64 68 76 74 86 85 82 92 93 92 95 100 98 98 100 100 100 92 80 72
30 19 24 18 14 13 14 14 12 10 14 5 4 5 6 10 14 18 39 63 66 72 69 76 78 81 90 100 100 89 79 83 78 84 83 85 92 100 94 94 96 99 100 100 100 99 100 100 100 100 100 98 100 98
23 20 23 20 14 14 15 16 13 10 16 6 5 5 6 11 15 20 32 57 80 87 80 78 88 86 90 93 100 91 84 83 83 81 82 84 96 100 100 100 100 99 100 100 100 100 100 100 100 97 99 100 100 99
25 30 19 22 15 15 16 17 14 13 19 7 5 6 6 11 17 21 26 52 78 88 88 81 89 82 84 91 92 98 93 88 92 83 82 94 100 100 100 100 100 100 98 94 99 100 100 100 100 96 94 99 99 94
25 23 22 22 15 16 18 19 16 21 23 9 7 7 9 14 18 22 27 48 81 93 93 91 88 86 80 84 93 96 94 89 90 92 87 100 98 92 88 94 100 100 100 100 100 100 100 100 100 97 95 95 99 100
22 23 25 21 16 17 19 21 19 23 34 15 9 9 9 16 22 24 31 62 79 80 80 97 100 96 90 85 83 88 92 87 80 87 96 100 100 95 99 99 96 92 93 93 91 98 98 92 86 90 98 100 100 100
21 25 25 20 18 18 20 21 23 28 35 25 12 10 11 15 27 35 42 65 66 69 80 82 100 99 92 87 95 98 95 90 86 82 87 94 100 100 97 96 98 100 97 89 82 83 90 100 100 100 100 100 99 95
23 26 23 21 21 19 20 23 23 36 42 43 23 13 13 13 18 28 51 71 59 70 75 77 80 94 93 88 82 86 100 100 100 99 91 94 93 100 100 100 100 97 99 95 91 92 97 100 100 100 92 85 86 84
24 25 21 23 23 22 21 23 23 35 54 48 49 26 16 14 14 19 34 61 58 63 67 72 68 73 89 96 94 76 83 100 87 81 98 100 99 100 98 96 97 98 99 98 94 92 94 92 94 92 82 81 92 100
24 22 20 23 26 24 23 23 23 26 52 60 55 51 30 23 18 16 22 27 27 43 63 73 86 67 64 81 100 100 98 84 64 62 91 100 100 100 100 100 100 96 94 98 95 91 88 85 78 76 88 96 100 100
23 21 22 24 26 29 23 23 22 24 34 64 63 62 51 37 26 24 18 20 25 23 28 40 60 84 94 88 91 94 96 98 84 76 80 99 99 100 100 100 100 100 100 90 84 87 92 91 90 92 97 100 100 100
22 21 24 24 25 31 25 22 21 23 25 50 69 67 65 59 50 35 26 22 17 18 21 24 23 45 88 99 100 90 88 94 98 93 90 85 79 88 98 100 100 100 100 100 100 100 100 100 100 100 100 100 100 100
21 22 25 26 26 28 28 26 24 23 24 31 65 74 73 71 66 56 46 32 26 22 15 16 22 31 36 71 98 91 97 98 100 97 97 95 92 89 91 94 100 100 100 100 100 100 100 100 100 100 100 100 100 100
20 23 26 27 25 27 27 28 25 23 24 22 37 69 74 77 73 70 60 46 38 32 26 20 15 19 34 34 41 66 79 89 100 100 100 100 100 100 100 96 96 100 100 100 100 100 100 100 100 95 95 99 100 100
20 22 25 29 26 27 25 28 26 24 25 25 23 44 68 76 83 81 72 60 48 34 30 28 25 19 14 20 33 34 36 58 66 92 100 100 100 100 100 100 100 100 100 100 100 100 100 100 100 100 100 99 94 92
21 22 26 27 26 27 29 25 24 22 24 24 22 33 58 72 80 86 79 63 53 42 29 24 25 25 21 14 13 21 30 34 37 50 64 90 100 100 100 100 100 97 99 100 100 100 100 100 100 100 100 100 100 100
21 22 29 29 25 29 28 24 22 21 21 22 21 23 46 63 74 77 71 60 56 44 28 18 18 20 21 18 15 11 16 25 32 36 42 61 78 94 100 100 100 100 100 100 100 100 100 100 100 100 100 100 100 100
22 24 28 26 26 27 24 22 20 19 20 20 19 19 32 54 67 69 62 51 41 30 19 14 13 16 17 16 15 14 11 14 20 27 33 37 52 81 95 96 100 100 100 100 100 100 100 100 100 100 100 100 100 96
23 27 24 25 26 24 23 20 19 19 20 20 20 20 34 52 60 57 49 37 23 16 14 12 12 12 13 14 15 14 13 10 12 18 22 29 40 63 89 100 100 100 100 100 100 100 97 90 86 85 86 89 91 88
22 25 26 24 24 23 21 19 19 20 20 20 19 20 37 54 55 47 35 19 13 12 11 10 9 9 9 10 11 12 12 12 10 11 17 23 33 46 59 84 99 94 98 100 100 100 97 97 100 100 100 100 95 95
21 24 23 22 23 22 20 20 20 19 20 19 20 38 54 53 45 33 16 11 10 9 7 6 5 5 5 6 8 9 10 10 11 10 12 18 25 37 45 56 73 84 91 98 100 97 100 100 100 100 97 95 96 95
22 22 22 23 22 21 20 19 19 20 20 21 36 51 50 43 35 19 13 11 8 5 5 4 4 4 4 5 6 7 8 9 10 10 10 12 15 25 36 45 54 74 87 92 94 98 100 100 99 94 92 90 92 96
21 22 22 22 21 20 18 19 20 20 20 31 46 50 46 37 22 14 11 8 5 4 4 4 4 4 4 4 4 5 6 7 8 9 10 11 12 18 26 32 40 49 56 66 80 86 85 79 74 70 75 82 86 83
20 22 22 22 20 18 19 20 19 18 28 48 55 51 40 24 15 13 9 6 5 4 4 3 3 3 4 4 4 4 5 5 6 7 9 10 11 15 23 30 36 42 51 59 57 51 48 50 55 62 66 69 74 77
21 21 21 20 19 19 21 20 22 40 55 59 55 46 29 17 14 11 7 5 4 4 4 3 3 3 3 4 4 4 4 5 6 7 8 9 10 12 18 25 32 36 38 40 44 48 49 47 46 48 53 53 53 51
21 21 20 20 20 21 23 31 48 60 63 58 50 34 19 15 12 8 6 5 5 4 4 4 4 4 4 4 4 4 5 5 6 6 7 8 8 9 11 16 19 24 29 34 36 35 34 35 37 37 38 40 40 39

GFSWCAN_250_rhum_039.txt.gz
RH
11 9 10 11 11 11 11 11 12 11 12 11 9 10 15 14 8 8 11 11 12 13 13 13 14 15 17 20 28 47 67 85 100 100 100 100 95 93 97 100 95 100 96 93 80 64 60 89 100 91 97 100 100 100
10 9 10 11 11 12 11 11 12 10 12 12 10 10 14 14 8 8 9 12 14 14 15 15 16 17 19 21 26 34 56 65 94 99 100 100 93 92 98 100 99 94 98 100 66 58 66 76 88 88 84 93 100 100
10 9 11 12 11 12 12 11 11 10 12 12 10 10 16 10 7 8 9 14 14 16 17 17 19 21 22 25 27 38 49 73 92 99 94 97 100 100 99 100 100 85 75 79 73 66 72 84 83 76 82 79 97 94
10 10 12 13 12 13 12 11 11 10 12 12 9 10 15 7 6 7 8 15 15 17 21 20 21 27 28 32 36 40 48 59 72 79 76 80 88 88 96 100 98 83 75 75 79 78 95 96 84 83 97 77 83 85
11 11 13 13 13 14 13 11 10 10 11 12 9 10 13 6 6 7 10 14 17 19 23 27 31 36 39 42 42 44 48 54 60 64 63 57 76 100 100 100 88 84 95 87 87 96 100 98 80 98 88 90 88 65
11 12 13 14 14 16 14 11 11 10 10 11 8 9 9 5 5 6 9 15 18 22 26 38 43 40 42 49 50 58 72 71 62 60 69 84 100 92 93 98 94 84 86 89 92 96 100 100 96 100 99 85 85 88
15 13 15 16 16 20 14 11 11 11 11 10 8 10 6 4 5 6 10 16 20 26 39 55 63 72 81 96 100 100 97 95 80 72 68 67 70 70 76 74 83 93 79 84 95 97 100 98 99 94 86 87 81 77
16 14 17 16 18 22 18 12 12 13 12 10 8 11 6 5 6 5 11 18 23 30 50 68 72 88 98 100 100 88 80 69 55 56 58 69 78 79 60 73 89 80 86 99 100 100 90 93 100 96 93 97 93 86
17 19 20 16 22 22 20 15 12 16 14 11 10 14 7 6 6 8 15 21 26 32 53 76 82 94 97 100 87 82 79 66 59 59 67 75 77 75 76 86 95 81 97 99 87 79 95 100 100 100 100 100 100 100
19 22 18 17 24 25 22 17 14 18 17 13 12 16 10 7 8 13 16 24 27 40 60 87 100 99 94 97 77 84 88 77 69 70 66 64 66 74 78 80 80 68 67 65 72 95 100 100 100 100 100 100 100 100
23 22 21 25 28 30 30 20 16 18 22 14 17 20 19 9 11 17 18 19 33 48 69 92 100 100 100 98 85 85 94 91 78 82 79 78 72 66 69 72 67 64 86 94 95 100 100 96 98 100 100 98 100 100
26 26 25 34 29 38 35 23 20 19 26 17 17 22 31 14 11 17 21 21 34 54 70 92 100 100 100 99 84 90 97 100 94 86 88 82 85 85 90 94 98 100 100 100 100 100 99 99 97 99 98 100 100 100
21 26 37 34 33 38 30 26 25 20 25 21 19 22 38 25 14 14 21 22 27 50 69 83 99 100 100 100 97 87 93 97 100 100 100 99 98 100 100 100 100 96 97 100 100 100 100 100 96 99 99 96 95 96
20 35 37 38 46 42 43 28 29 24 21 26 21 24 31 46 20 15 14 18 25 44 64 70 87 99 100 100 100 92 93 93 95 98 100 100 100 100 100 100 98 95 95 95 97 98 98 95 93 94 100 100 100 100
24 36 45 36 44 53 49 29 29 26 22 23 25 24 25 47 46 24 16 19 20 28 43 61 74 92 100 100 100 99 94 92 92 100 100 100 100 100 100 100 100 95 90 84 84 88 89 91 95 96 99 100 100 98
22 29 36 37 50 60 55 32 28 26 27 22 25 29 26 28 60 51 26 17 19 28 28 38 50 72 90 100 100 100 100 95 90 94 99 99 100 100 100 100 100 100 100 100 100 100 100 100 99 96 94 94 94 90
30 40 44 43 54 68 47 32 26 27 28 26 24 29 31 29 30 50 62 39 20 16 22 31 32 50 70 93 100 100 100 89 89 83 87 95 100 100 100 100 100 100 100 100 100 100 99 94 90 92 95 100 96 89
33 47 52 53 74 53 34 30 25 27 28 27 27 25 33 33 31 32 35 61 49 29 18 18 24 34 41 66 95 100 99 94 93 88 86 92 97 99 100 100 99 96 92 96 100 100 94 94 95 98 99 100 100 97
32 37 40 45 44 32 31 28 25 27 30 28 29 26 26 34 32 30 29 29 56 58 42 27 18 21 26 51 69 73 88 88 94 97 93 97 96 100 100 98 93 90 88 90 93 97 99 98 93 94 94 96 100 99
30 29 31 30 28 28 27 25 24 27 30 30 31 29 27 28 35 33 29 28 28 40 63 59 41 27 20 20 25 29 52 65 79 89 97 100 96 100 100 100 100 99 93 91 93 95 98 100 97 99 100 100 100 99
24 25 26 26 24 26 24 23 23 28 28 29 36 32 29 28 32 37 34 28 27 24 31 48 64 60 42 28 23 19 23 25 24 45 68 84 93 93 96 100 100 100 100 100 100 100 100 100 100 100 100 100 100 100
22 23 23 22 22 23 21 22 23 25 27 28 30 33 30 27 28 32 32 32 29 28 26 23 28 50 65 66 57 40 28 23 20 22 28 32 46 72 79 85 94 100 100 99 97 96 100 100 100 100 100 100 100 100
21 21 21 20 20 20 21 23 25 26 30 28 28 31 34 30 25 25 28 27 29 29 26 24 21 22 34 52 61 67 69 61 51 38 27 21 20 32 47 51 59 73 88 92 91 91 91 98 100 100 100 99 100 100
19 20 20 19 19 21 21 21 24 27 30 29 29 33 33 28 24 24 26 24 25 25 25 24 22 21 19 22 39 50 54 61 65 67 65 56 40 28 25 23 28 41 56 65 78 84 80 81 88 93 93 90 92 99
19 18 19 19 19 19 18 22 26 28 26 28 30 29 29 24 23 22 22 23 23 24 24 22 21 20 19 18 17 19 30 44 56 59 55 58 61 55 45 45 37 28 24 28 50 61 77 92 97 100 100 100 100 100
18 18 18 18 18 18 21 24 24 24 24 26 30 28 28 24 22 23 22 21 22 22 22 21 20 19 18 18 17 17 24 36 43 47 49 57 60 60 51 34 37 39 32 28 22 29 45 65 87 97 99 100 100 100
18 17 17 17 18 20 23 23 23 23 23 25 24 24 24 23 22 21 21 21 22 21 20 19 18 17 16 17 20 29 36 40 46 49 42 38 36 31 24 22 25 26 26 26 28 25 31 46 64 88 95 99 99 99
16 16 16 18 20 21 22 21 21 21 22 24 24 22 21 20 19 20 22 22 20 19 17 17 17 16 17 25 37 44 44 42 34 28 18 13 13 14 14 14 18 20 21 24 28 28 29 34 46 63 86 92 94 96
14 15 17 19 20 21 21 20 21 22 23 23 22 21 20 18 18 20 22 20 18 17 17 15 15 22 40 45 40 33 22 14 11 10 10 8 8 8 9 11 14 17 18 22 25 28 28 28 35 51 69 83 88 91
14 17 18 19 19 19 20 21 22 22 22 22 22 20 19 18 19 21 21 19 17 16 15 19 35 42 40 28 17 12 10 8 6 5 5 4 4 5 6 7 11 15 17 19 22 25 26 27 32 40 55 77 88 90
17 18 18 19 19 19 20 20 21 21 21 21 21 20 18 19 20 20 20 18 16 16 30 44 43 29 16 13 11 8 5 4 4 3 3 3 4 4 5 6 8 11 15 17 20 25 28 33 36 37 45 57 64 67
18 19 19 18 18 20 20 21 21 21 20 20 18 18 19 21 20 18 18 17 21 39 46 39 24 16 13 9 6 4 4 3 3 3 3 3 3 4 4 5 7 9 12 17 23 25 26 28 32 37 45 51 46 42
17 16 16 17 18 19 19 20 21 20 18 17 17 20 21 20 19 19 19 27 41 44 35 20 14 12 7 5 5 4 4 4 4 4 3 3 3 4 4 5 7 8 11 14 18 21 25 31 34 36 41 47 45 42

GFSWCAN_250_rhum_042.txt.gz
RH
11 11 11 11 11 10 11 13 13 15 13 12 12 11 10 11 12 12 7 8 13 14 15 15 14 17 28 47 72 93 100 99 100 100 100 100 100 100 100 100 100 95 82 88 80 71 70 65 72 79 75 78 96 96
10 10 11 12 10 10 12 12 12 14 13 12 11 12 11 11 12 12 6 7 11 15 16 16 16 16 18 30 51 71 86 93 98 100 93 100 95 100 100 100 100 87 94 97 79 88 72 81 76 63 68 80 82 68
9 10 11 11 10 11 12 12 13 13 12 11 9 11 12 11 12 11 6 6 9 14 16 17 18 17 18 19 26 48 80 92 92 99 100 98 98 99 100 100 100 98 98 98 91 81 98 81 82 85 69 82 76 58
9 10 11 11 10 11 14 14 15 13 12 10 10 10 10 10 11 8 5 6 8 14 16 18 19 19 19 20 20 23 35 71 91 95 100 100 97 99 100 100 100 94 96 94 80 80 90 88 94 99 97 78 70 64
10 11 12 11 11 13 16 15 16 13 11 9 9 10 9 10 9 5 5 5 10 16 17 20 20 22 23 23 24 26 29 33 70 86 96 100 100 95 100 100 100 90 100 97 72 87 86 92 96 100 97 95 95 100
11 12 12 11 12 14 17 17 14 13 11 8 9 9 8 9 6 4 4 5 10 16 18 24 28 29 29 28 30 32 35 39 45 68 77 94 100 100 100 99 90 93 100 91 86 96 98 97 100 96 92 90 97 94
12 13 12 12 13 16 20 19 15 14 11 8 10 9 8 8 4 4 4 7 13 19 24 31 33 36 41 38 39 44 46 50 54 60 72 81 86 88 81 87 92 100 99 77 92 89 92 94 100 84 99 91 100 92
13 14 12 14 14 16 21 26 19 14 11 9 10 9 9 8 4 4 6 10 18 20 29 33 37 50 52 57 66 64 66 64 58 55 54 58 63 79 91 90 100 99 88 73 82 80 92 100 88 90 98 100 100 98
14 14 13 14 14 20 23 24 22 14 13 10 10 9 11 8 5 5 9 15 19 26 36 43 56 67 84 95 95 91 86 79 84 82 77 80 89 83 88 95 100 81 79 76 77 80 100 91 82 96 97 100 100 96
14 13 14 15 15 19 25 28 28 16 13 13 11 10 12 13 7 9 14 18 26 34 43 53 80 98 100 96 95 98 91 81 66 57 58 64 66 94 91 78 87 80 83 87 79 83 74 72 91 93 98 100 100 96
15 14 13 13 21 21 29 37 32 20 14 16 15 14 14 20 11 10 15 22 33 40 52 71 95 100 100 98 97 96 89 75 67 66 65 67 87 90 93 97 100 99 75 75 76 60 66 79 96 92 100 99 97 96
16 15 13 17 24 29 39 37 34 24 16 18 15 17 16 19 22 13 16 24 37 58 60 83 99 100 100 100 95 90 92 86 84 79 83 84 86 86 95 100 100 95 88 79 79 70 92 97 100 98 100 95 91 96
16 17 14 19 25 35 44 36 39 29 21 19 20 19 20 19 27 23 17 19 30 51 62 82 100 100 100 100 96 91 88 96 92 94 91 88 84 89 94 96 95 89 88 83 78 87 100 100 99 98 96 89 84 84
21 21 17 23 24 38 40 38 39 38 24 23 27 21 23 22 21 34 23 20 25 35 61 74 99 100 100 100 100 100 91 88 97 100 99 97 87 86 85 88 88 98 100 100 100 91 98 95 89 92 89 84 86 88
22 21 22 24 30 42 45 42 43 35 24 27 30 23 24 25 24 23 41 22 22 30 36 61 82 98 100 100 100 100 100 100 97 94 94 99 98 100 98 100 100 100 100 100 100 99 100 100 100 100 98 98 96 99
23 22 24 25 36 43 46 46 42 39 28 32 30 27 26 25 25 23 25 45 31 22 36 42 58 86 97 100 100 100 100 100 99 95 94 94 96 96 100 100 100 100 100 100 100 100 100 100 100 100 100 100 100 100
23 22 22 26 32 35 39 41 45 41 37 34 34 32 24 29 29 22 23 28 46 52 24 26 38 52 76 94 100 100 100 97 99 100 100 100 100 100 100 99 96 100 100 100 100 100 100 100 98 95 96 95 97 98
22 25 23 26 30 33 42 43 46 43 39 32 30 30 27 26 32 29 23 24 28 45 62 42 23 29 37 60 83 97 99 96 96 100 100 100 100 100 100 100 100 100 100 98 100 100 100 97 90 90 96 100 98 99
18 20 27 29 28 28 33 40 41 38 34 29 30 28 27 29 29 30 27 24 25 27 36 65 68 40 25 29 42 51 64 77 88 96 97 98 100 100 100 100 100 100 100 100 100 100 100 100 98 98 100 100 100 100
20 19 23 30 36 30 33 35 32 35 35 29 29 27 27 32 33 31 28 27 25 24 28 28 49 79 67 38 26 26 32 45 60 61 66 93 99 100 100 100 100 97 98 100 100 100 100 100 100 100 100 100 100 100
24 22 22 25 30 30 26 30 29 31 30 28 26 25 26 35 37 31 28 25 25 26 26 24 26 29 67 85 75 51 27 22 23 30 44 61 64 72 79 85 98 98 98 100 100 100 100 100 100 100 100 100 100 100
26 25 25 27 26 24 26 29 28 28 26 25 24 23 24 32 34 32 29 28 27 26 28 25 24 24 25 30 53 78 79 71 44 24 19 20 26 51 73 74 68 72 85 92 97 99 99 98 98 100 100 100 100 100
23 23 22 23 23 23 26 26 26 24 22 22 22 22 23 29 32 28 30 25 27 28 24 25 26 23 22 23 24 26 38 63 74 74 62 40 22 17 18 33 58 71 71 72 77 82 81 85 94 95 98 100 100 100
21 20 20 21 22 24 26 25 23 22 21 21 21 22 26 32 32 30 28 26 27 29 26 24 26 26 22 20 20 20 22 23 25 35 52 63 66 58 48 33 24 25 30 38 51 66 76 77 76 77 84 92 98 100
20 19 20 23 23 23 24 24 22 21 20 20 20 21 26 32 32 31 27 25 25 23 23 21 21 23 22 20 19 18 18 20 21 20 19 20 32 50 56 60 60 59 56 47 36 30 28 33 47 69 80 82 87 96
19 19 22 24 23 22 23 23 21 20 20 19 20 24 30 34 32 30 26 24 21 20 22 20 20 22 20 19 18 18 18 19 20 19 18 18 18 20 24 34 51 60 64 73 79 78 75 73 64 52 42 39 46 60
19 22 22 22 22 22 22 21 20 20 19 19 22 26 27 27 25 24 24 22 20 20 20 19 20 20 18 17 17 17 18 18 19 19 17 16 15 18 23 27 33 38 43 51 62 74 83 88 94 94 91 79 63 52
22 23 22 21 21 20 20 21 20 19 19 20 23 24 25 24 22 23 22 21 21 19 18 19 20 20 18 17 17 17 17 18 18 17 16 16 24 31 37 41 43 45 50 51 54 55 65 73 87 93 85 80 72 61
20 19 19 20 20 21 20 19 18 18 18 20 22 21 22 22 22 20 20 20 19 18 19 19 19 18 17 16 16 17 17 17 20 26 30 30 25 22 20 16 14 14 15 17 22 27 39 44 54 54 55 60 62 60
17 18 19 20 21 21 19 17 16 17 18 19 21 22 20 20 19 18 19 18 18 18 20 18 17 16 16 17 17 18 29 40 35 30 26 16 11 10 10 9 8 8 8 9 12 14 15 19 26 32 37 44 53 56
15 17 19 20 20 18 16 16 16 18 19 20 20 20 19 18 18 17 17 18 18 19 18 16 17 17 17 19 33 41 33 30 22 13 10 8 7 6 5 4 4 4 4 5 6 7 10 14 20 24 28 36 44 50
18 19 19 18 16 16 16 17 18 18 18 18 18 18 18 18 16 14 15 18 19 18 16 17 16 17 28 46 45 39 26 14 10 8 6 5 4 4 4 4 3 3 4 4 6 6 8 12 16 20 26 34 40 45
17 16 16 15 15 16 18 19 18 18 18 18 17 18 17 17 16 16 17 18 17 16 17 17 18 31 48 46 35 22 14 9 6 5 4 4 4 4 4 4 3 4 4 4 5 6 8 10 13 18 25 30 32 36